Wetterdaten: Montag, 08.04.2019
Datum Zeit Temp. Aussen Temp. o. S. +5cm Feuchte Auss Luftdruck Regen Sonnenschein Regendauer Solar Windben Empfang
08.04.2019 00:00 13,0 C 10,6 C 9,4 C 75 % 1004,8 hPa 0,0 l/m 0 min 0 min 0 W/m 0,0 km/h (0 Bft) 97,87 %
08.04.2019 00:02 12,9 C 10,6 C 9,4 C 75 % 1004,8 hPa 0,0 l/m 0 min 0 min 0 W/m 0,0 km/h (0 Bft) 96,88 %
08.04.2019 00:04 12,9 C 10,0 C 9,4 C 75 % 1004,8 hPa 0,0 l/m 0 min 0 min 0 W/m 0,0 km/h (0 Bft) 95,74 %
08.04.2019 00:07 12,8 C 10,0 C 8,9 C 76 % 1004,9 hPa 0,0 l/m 0 min 0 min 0 W/m 0,0 km/h (0 Bft) 97,53 %
08.04.2019 00:08 12,7 C 10,0 C 8,9 C 76 % 1004,9 hPa 0,0 l/m 0 min 0 min 0 W/m 0,0 km/h (0 Bft) 91,67 %
08.04.2019 00:10 12,7 C 10,0 C 8,9 C 76 % 1004,9 hPa 0,0 l/m 0 min 0 min 0 W/m 0,0 km/h (0 Bft) 97,87 %
08.04.2019 00:12 12,6 C 10,0 C 8,9 C 76 % 1004,8 hPa 0,0 l/m 0 min 0 min 0 W/m 0,0 km/h (0 Bft) 95,74 %
08.04.2019 00:14 12,5 C 10,0 C 8,9 C 76 % 1004,9 hPa 0,0 l/m 0 min 0 min 0 W/m 0,0 km/h (0 Bft) 95,74 %
08.04.2019 00:16 12,4 C 10,0 C 8,9 C 77 % 1004,9 hPa 0,0 l/m 0 min 0 min 0 W/m 0,0 km/h (0 Bft) 95,74 %
08.04.2019 00:18 12,4 C 10,0 C 8,9 C 77 % 1004,9 hPa 0,0 l/m 0 min 0 min 0 W/m 0,0 km/h (0 Bft) 97,83 %
08.04.2019 00:20 12,3 C 10,0 C 8,9 C 77 % 1004,9 hPa 0,0 l/m 0 min 0 min 0 W/m 0,0 km/h (0 Bft) 97,87 %
08.04.2019 00:22 12,3 C 10,0 C 8,9 C 77 % 1004,9 hPa 0,0 l/m 0 min 0 min 0 W/m 0,0 km/h (0 Bft) 95,74 %
08.04.2019 00:24 12,2 C 10,0 C 8,3 C 77 % 1004,9 hPa 0,0 l/m 0 min 0 min 0 W/m 0,0 km/h (0 Bft) 97,87 %
08.04.2019 00:26 12,2 C 10,0 C 8,3 C 77 % 1004,9 hPa 0,0 l/m 0 min 0 min 0 W/m 0,0 km/h (0 Bft) 97,87 %
08.04.2019 00:28 12,1 C 10,0 C 8,3 C 77 % 1004,9 hPa 0,0 l/m 0 min 0 min 0 W/m 0,0 km/h (0 Bft) 97,87 %
08.04.2019 00:30 12,1 C 10,0 C 8,3 C 77 % 1004,9 hPa 0,0 l/m 0 min 0 min 0 W/m 0,0 km/h (0 Bft) 97,83 %
08.04.2019 00:32 12,1 C 10,0 C 8,3 C 77 % 1004,9 hPa 0,0 l/m 0 min 0 min 0 W/m 0,0 km/h (0 Bft) 100,00 %
08.04.2019 00:34 12,0 C 9,4 C 8,3 C 77 % 1004,9 hPa 0,0 l/m 0 min 0 min 0 W/m 0,0 km/h (0 Bft) 100,00 %
08.04.2019 00:36 11,9 C 9,4 C 8,3 C 77 % 1004,9 hPa 0,0 l/m 0 min 0 min 0 W/m 0,0 km/h (0 Bft) 98,31 %
08.04.2019 00:38 11,9 C 9,4 C 8,3 C 77 % 1004,9 hPa 0,0 l/m 0 min 0 min 0 W/m 0,0 km/h (0 Bft) 97,14 %
08.04.2019 00:40 11,8 C 9,4 C 8,3 C 77 % 1004,9 hPa 0,0 l/m 0 min 0 min 0 W/m 0,0 km/h (0 Bft) 100,00 %
08.04.2019 00:42 11,8 C 9,4 C 8,3 C 77 % 1005,0 hPa 0,0 l/m 0 min 0 min 0 W/m 0,0 km/h (0 Bft) 95,74 %
08.04.2019 00:44 11,7 C 9,4 C 8,3 C 78 % 1005,0 hPa 0,0 l/m 0 min 0 min 0 W/m 0,0 km/h (0 Bft) 100,00 %
08.04.2019 00:46 11,7 C 9,4 C 8,3 C 77 % 1004,9 hPa 0,0 l/m 0 min 0 min 0 W/m 0,0 km/h (0 Bft) 100,00 %
08.04.2019 00:48 11,6 C 9,4 C 8,3 C 78 % 1005,0 hPa 0,0 l/m 0 min 0 min 0 W/m 0,0 km/h (0 Bft) 97,87 %
08.04.2019 00:50 11,6 C 9,4 C 7,8 C 78 % 1005,0 hPa 0,0 l/m 0 min 0 min 0 W/m 0,0 km/h (0 Bft) 100,00 %
08.04.2019 00:52 11,5 C 9,4 C 7,8 C 78 % 1005,0 hPa 0,0 l/m 0 min 0 min 0 W/m 0,0 km/h (0 Bft) 97,83 %
08.04.2019 00:54 11,5 C 9,4 C 7,8 C 78 % 1005,0 hPa 0,0 l/m 0 min 0 min 0 W/m 0,0 km/h (0 Bft) 100,00 %
08.04.2019 00:56 11,4 C 9,4 C 7,8 C 78 % 1005,0 hPa 0,0 l/m 0 min 0 min 0 W/m 0,0 km/h (0 Bft) 100,00 %
08.04.2019 00:58 11,4 C 9,4 C 7,8 C 78 % 1005,0 hPa 0,0 l/m 0 min 0 min 0 W/m 0,0 km/h (0 Bft) 100,00 %
08.04.2019 01:00 11,3 C 9,4 C 7,8 C 78 % 1005,1 hPa 0,0 l/m 0 min 0 min 0 W/m 0,0 km/h (0 Bft) 100,00 %
08.04.2019 01:02 11,3 C 9,4 C 7,8 C 78 % 1005,0 hPa 0,0 l/m 0 min 0 min 0 W/m 0,0 km/h (0 Bft) 100,00 %
08.04.2019 01:04 11,3 C 9,4 C 7,8 C 78 % 1005,0 hPa 0,0 l/m 0 min 0 min 0 W/m 0,0 km/h (0 Bft) 100,00 %
08.04.2019 01:06 11,2 C 9,4 C 7,8 C 78 % 1005,0 hPa 0,0 l/m 0 min 0 min 0 W/m 0,0 km/h (0 Bft) 100,00 %
08.04.2019 01:08 11,2 C 9,4 C 7,8 C 79 % 1005,0 hPa 0,0 l/m 0 min 0 min 0 W/m 0,0 km/h (0 Bft) 100,00 %
08.04.2019 01:10 11,2 C 9,4 C 7,8 C 79 % 1005,0 hPa 0,0 l/m 0 min 0 min 0 W/m 0,0 km/h (0 Bft) 100,00 %
08.04.2019 01:12 11,1 C 9,4 C 7,8 C 79 % 1005,0 hPa 0,0 l/m 0 min 0 min 0 W/m 0,0 km/h (0 Bft) 100,00 %
08.04.2019 01:14 11,1 C 8,9 C 7,8 C 79 % 1005,1 hPa 0,0 l/m 0 min 0 min 0 W/m 0,0 km/h (0 Bft) 100,00 %
08.04.2019 01:16 11,0 C 8,9 C 7,8 C 79 % 1005,1 hPa 0,0 l/m 0 min 0 min 0 W/m 0,0 km/h (0 Bft) 100,00 %
08.04.2019 01:18 11,0 C 8,9 C 7,8 C 79 % 1005,1 hPa 0,0 l/m 0 min 0 min 0 W/m 0,0 km/h (0 Bft) 97,87 %
08.04.2019 01:20 10,9 C 8,9 C 7,8 C 79 % 1005,0 hPa 0,0 l/m 0 min 0 min 0 W/m 0,0 km/h (0 Bft) 100,00 %
08.04.2019 01:22 10,9 C 8,9 C 7,2 C 79 % 1005,1 hPa 0,0 l/m 0 min 0 min 0 W/m 0,0 km/h (0 Bft) 97,87 %
08.04.2019 01:24 10,8 C 8,9 C 7,2 C 79 % 1005,1 hPa 0,0 l/m 0 min 0 min 0 W/m 0,0 km/h (0 Bft) 100,00 %
08.04.2019 01:26 10,8 C 8,9 C 7,2 C 80 % 1005,1 hPa 0,0 l/m 0 min 0 min 0 W/m 0,0 km/h (0 Bft) 100,00 %
08.04.2019 01:28 10,8 C 8,9 C 7,2 C 80 % 1005,2 hPa 0,0 l/m 0 min 0 min 0 W/m 0,0 km/h (0 Bft) 100,00 %
08.04.2019 01:30 10,8 C 8,9 C 7,2 C 80 % 1005,1 hPa 0,0 l/m 0 min 0 min 0 W/m 0,0 km/h (0 Bft) 100,00 %
08.04.2019 01:32 10,7 C 8,9 C 7,2 C 80 % 1005,1 hPa 0,0 l/m 0 min 0 min 0 W/m 0,0 km/h (0 Bft) 100,00 %
08.04.2019 01:34 10,7 C 9,4 C 7,2 C 80 % 1005,2 hPa 0,0 l/m 0 min 0 min 0 W/m 0,0 km/h (0 Bft) 100,00 %
08.04.2019 01:36 10,7 C 9,4 C 7,8 C 80 % 1005,2 hPa 0,0 l/m 0 min 0 min 0 W/m 6,4 km/h (2 Bft) 100,00 %
08.04.2019 01:38 10,6 C 10,0 C 7,8 C 81 % 1005,3 hPa 0,0 l/m 0 min 0 min 0 W/m 3,2 km/h (1 Bft) 100,00 %
08.04.2019 01:40 10,6 C 9,4 C 8,3 C 81 % 1005,2 hPa 0,0 l/m 0 min 0 min 0 W/m 6,4 km/h (2 Bft) 100,00 %
08.04.2019 01:42 10,6 C 10,0 C 7,8 C 82 % 1005,3 hPa 0,0 l/m 0 min 0 min 0 W/m 3,2 km/h (1 Bft) 100,00 %
08.04.2019 01:44 10,6 C 10,6 C 8,3 C 82 % 1005,2 hPa 0,0 l/m 0 min 0 min 0 W/m 3,2 km/h (1 Bft) 97,87 %
08.04.2019 01:46 10,5 C 10,6 C 8,3 C 82 % 1005,2 hPa 0,0 l/m 0 min 0 min 0 W/m 3,2 km/h (1 Bft) 93,62 %
08.04.2019 01:48 10,5 C 10,6 C 7,8 C 83 % 1005,2 hPa 0,0 l/m 0 min 0 min 0 W/m 3,2 km/h (1 Bft) 95,74 %
08.04.2019 01:50 10,5 C 10,6 C 7,8 C 83 % 1005,3 hPa 0,0 l/m 0 min 0 min 0 W/m 3,2 km/h (1 Bft) 97,83 %
08.04.2019 01:52 10,5 C 10,6 C 7,8 C 83 % 1005,4 hPa 0,0 l/m 0 min 0 min 0 W/m 0,0 km/h (0 Bft) 94,23 %
08.04.2019 01:54 10,5 C 10,0 C 7,8 C 83 % 1005,4 hPa 0,0 l/m 0 min 0 min 0 W/m 0,0 km/h (0 Bft) 95,74 %
08.04.2019 01:56 10,5 C 10,0 C 7,8 C 83 % 1005,4 hPa 0,0 l/m 0 min 0 min 0 W/m 0,0 km/h (0 Bft) 95,74 %
08.04.2019 01:58 10,4 C 10,0 C 7,8 C 83 % 1005,4 hPa 0,0 l/m 0 min 0 min 0 W/m 3,2 km/h (1 Bft) 95,74 %
08.04.2019 02:00 10,4 C 10,0 C 7,8 C 83 % 1005,4 hPa 0,0 l/m 0 min 0 min 0 W/m 6,4 km/h (2 Bft) 95,65 %
08.04.2019 02:02 10,5 C 10,6 C 8,3 C 83 % 1005,5 hPa 0,0 l/m 0 min 0 min 0 W/m 9,7 km/h (2 Bft) 93,62 %
08.04.2019 02:04 10,5 C 10,6 C 8,3 C 83 % 1005,5 hPa 0,0 l/m 0 min 0 min 0 W/m 3,2 km/h (1 Bft) 95,74 %
08.04.2019 02:06 10,5 C 10,6 C 8,3 C 84 % 1005,5 hPa 0,0 l/m 0 min 0 min 0 W/m 9,7 km/h (2 Bft) 95,74 %
08.04.2019 02:08 10,5 C 10,6 C 8,9 C 84 % 1005,4 hPa 0,0 l/m 0 min 0 min 0 W/m 3,2 km/h (1 Bft) 93,62 %
08.04.2019 02:10 10,6 C 10,6 C 8,9 C 84 % 1005,4 hPa 0,0 l/m 0 min 0 min 0 W/m 3,2 km/h (1 Bft) 95,74 %
08.04.2019 02:12 10,6 C 10,6 C 8,9 C 84 % 1005,4 hPa 0,0 l/m 0 min 0 min 0 W/m 3,2 km/h (1 Bft) 95,65 %
08.04.2019 02:14 10,6 C 10,6 C 8,9 C 84 % 1005,4 hPa 0,0 l/m 0 min 0 min 0 W/m 3,2 km/h (1 Bft) 93,62 %
08.04.2019 02:16 10,6 C 10,6 C 8,9 C 84 % 1005,4 hPa 0,0 l/m 0 min 0 min 0 W/m 3,2 km/h (1 Bft) 95,74 %
08.04.2019 02:18 10,6 C 10,0 C 8,9 C 85 % 1005,4 hPa 0,0 l/m 0 min 0 min 0 W/m 0,0 km/h (0 Bft) 95,74 %
08.04.2019 02:20 10,6 C 10,0 C 8,3 C 85 % 1005,5 hPa 0,0 l/m 0 min 0 min 0 W/m 3,2 km/h (1 Bft) 91,49 %
08.04.2019 02:22 10,6 C 10,0 C 8,3 C 84 % 1005,5 hPa 0,0 l/m 0 min 0 min 0 W/m 0,0 km/h (0 Bft) 97,87 %
08.04.2019 02:24 10,6 C 9,4 C 7,8 C 85 % 1005,5 hPa 0,0 l/m 0 min 0 min 0 W/m 3,2 km/h (1 Bft) 95,65 %
08.04.2019 02:26 10,7 C 9,4 C 7,8 C 85 % 1005,5 hPa 0,0 l/m 0 min 0 min 0 W/m 0,0 km/h (0 Bft) 97,87 %
08.04.2019 02:28 10,7 C 9,4 C 7,8 C 84 % 1005,5 hPa 0,0 l/m 0 min 0 min 0 W/m 3,2 km/h (1 Bft) 97,87 %
08.04.2019 02:30 10,7 C 9,4 C 7,8 C 85 % 1005,5 hPa 0,0 l/m 0 min 0 min 0 W/m 3,2 km/h (1 Bft) 97,87 %
08.04.2019 02:32 10,7 C 9,4 C 7,8 C 85 % 1005,4 hPa 0,0 l/m 0 min 0 min 0 W/m 0,0 km/h (0 Bft) 95,74 %
08.04.2019 02:34 10,7 C 8,9 C 7,8 C 84 % 1005,5 hPa 0,0 l/m 0 min 0 min 0 W/m 0,0 km/h (0 Bft) 100,00 %
08.04.2019 02:36 10,6 C 8,9 C 7,8 C 84 % 1005,5 hPa 0,0 l/m 0 min 0 min 0 W/m 3,2 km/h (1 Bft) 100,00 %
08.04.2019 02:38 10,6 C 8,9 C 7,2 C 84 % 1005,5 hPa 0,0 l/m 0 min 0 min 0 W/m 3,2 km/h (1 Bft) 95,74 %
08.04.2019 02:40 10,6 C 8,9 C 7,2 C 85 % 1005,5 hPa 0,0 l/m 0 min 0 min 0 W/m 0,0 km/h (0 Bft) 100,00 %
08.04.2019 02:42 10,6 C 8,9 C 7,2 C 84 % 1005,5 hPa 0,0 l/m 0 min 0 min 0 W/m 3,2 km/h (1 Bft) 95,74 %
08.04.2019 02:44 10,6 C 8,9 C 7,2 C 84 % 1005,5 hPa 0,0 l/m 0 min 0 min 0 W/m 3,2 km/h (1 Bft) 100,00 %
08.04.2019 02:46 10,5 C 8,9 C 7,2 C 85 % 1005,4 hPa 0,0 l/m 0 min 0 min 0 W/m 3,2 km/h (1 Bft) 95,74 %
08.04.2019 02:48 10,5 C 8,9 C 7,2 C 85 % 1005,4 hPa 0,0 l/m 0 min 0 min 0 W/m 3,2 km/h (1 Bft) 100,00 %
08.04.2019 02:50 10,4 C 8,9 C 7,2 C 85 % 1005,4 hPa 0,0 l/m 0 min 0 min 0 W/m 3,2 km/h (1 Bft) 100,00 %
08.04.2019 02:52 10,4 C 8,3 C 7,2 C 85 % 1005,3 hPa 0,0 l/m 0 min 0 min 0 W/m 0,0 km/h (0 Bft) 97,87 %
08.04.2019 02:54 10,4 C 8,3 C 7,2 C 85 % 1005,4 hPa 0,0 l/m 0 min 0 min 0 W/m 0,0 km/h (0 Bft) 97,87 %
08.04.2019 02:56 10,4 C 8,3 C 7,2 C 85 % 1005,4 hPa 0,0 l/m 0 min 0 min 0 W/m 0,0 km/h (0 Bft) 95,74 %
08.04.2019 02:58 10,4 C 8,9 C 7,2 C 85 % 1005,4 hPa 0,0 l/m 0 min 0 min 0 W/m 0,0 km/h (0 Bft) 97,87 %
08.04.2019 03:00 10,3 C 8,3 C 7,2 C 85 % 1005,4 hPa 0,0 l/m 0 min 0 min 0 W/m 0,0 km/h (0 Bft) 97,83 %
08.04.2019 03:02 10,3 C 8,3 C 7,2 C 85 % 1005,4 hPa 0,0 l/m 0 min 0 min 0 W/m 0,0 km/h (0 Bft) 95,74 %
08.04.2019 03:04 10,3 C 8,3 C 7,2 C 85 % 1005,5 hPa 0,0 l/m 0 min 0 min 0 W/m 0,0 km/h (0 Bft) 97,87 %
08.04.2019 03:06 10,3 C 8,3 C 7,2 C 85 % 1005,5 hPa 0,0 l/m 0 min 0 min 0 W/m 0,0 km/h (0 Bft) 97,87 %
08.04.2019 03:08 10,2 C 8,3 C 6,7 C 85 % 1005,5 hPa 0,0 l/m 0 min 0 min 0 W/m 0,0 km/h (0 Bft) 97,87 %
08.04.2019 03:10 10,2 C 8,3 C 6,7 C 86 % 1005,5 hPa 0,0 l/m 0 min 0 min 0 W/m 0,0 km/h (0 Bft) 97,87 %
08.04.2019 03:12 10,2 C 8,3 C 6,7 C 85 % 1005,5 hPa 0,0 l/m 0 min 0 min 0 W/m 0,0 km/h (0 Bft) 97,83 %
08.04.2019 03:14 10,1 C 7,8 C 6,7 C 85 % 1005,4 hPa 0,0 l/m 0 min 0 min 0 W/m 0,0 km/h (0 Bft) 95,74 %
08.04.2019 03:16 10,1 C 7,8 C 6,7 C 85 % 1005,5 hPa 0,0 l/m 0 min 0 min 0 W/m 0,0 km/h (0 Bft) 97,87 %
08.04.2019 03:18 10,1 C 7,8 C 6,7 C 85 % 1005,4 hPa 0,0 l/m 0 min 0 min 0 W/m 0,0 km/h (0 Bft) 95,74 %
08.04.2019 03:20 10,0 C 7,8 C 6,7 C 86 % 1005,5 hPa 0,0 l/m 0 min 0 min 0 W/m 0,0 km/h (0 Bft) 97,87 %
08.04.2019 03:22 10,0 C 7,8 C 6,7 C 86 % 1005,5 hPa 0,0 l/m 0 min 0 min 0 W/m 0,0 km/h (0 Bft) 97,83 %
08.04.2019 03:24 9,9 C 7,8 C 6,7 C 86 % 1005,5 hPa 0,0 l/m 0 min 0 min 0 W/m 0,0 km/h (0 Bft) 97,87 %
08.04.2019 03:26 9,9 C 7,2 C 6,7 C 86 % 1005,5 hPa 0,0 l/m 0 min 0 min 0 W/m 0,0 km/h (0 Bft) 97,87 %
08.04.2019 03:28 9,9 C 7,2 C 6,7 C 86 % 1005,5 hPa 0,0 l/m 0 min 0 min 0 W/m 0,0 km/h (0 Bft) 95,74 %
08.04.2019 03:30 9,8 C 7,2 C 6,7 C 86 % 1005,5 hPa 0,0 l/m 0 min 0 min 0 W/m 0,0 km/h (0 Bft) 97,87 %
08.04.2019 03:32 9,8 C 7,2 C 6,7 C 86 % 1005,6 hPa 0,0 l/m 0 min 0 min 0 W/m 0,0 km/h (0 Bft) 97,87 %
08.04.2019 03:34 9,8 C 7,2 C 6,7 C 86 % 1005,6 hPa 0,0 l/m 0 min 0 min 0 W/m 0,0 km/h (0 Bft) 97,87 %
08.04.2019 03:36 9,7 C 7,2 C 6,7 C 86 % 1005,6 hPa 0,0 l/m 0 min 0 min 0 W/m 0,0 km/h (0 Bft) 95,65 %
08.04.2019 03:38 9,7 C 7,2 C 6,1 C 87 % 1005,6 hPa 0,0 l/m 0 min 0 min 0 W/m 0,0 km/h (0 Bft) 97,87 %
08.04.2019 03:40 9,7 C 7,2 C 6,1 C 87 % 1005,6 hPa 0,0 l/m 0 min 0 min 0 W/m 0,0 km/h (0 Bft) 95,74 %
08.04.2019 03:42 9,6 C 7,2 C 6,1 C 87 % 1005,6 hPa 0,0 l/m 0 min 0 min 0 W/m 0,0 km/h (0 Bft) 93,62 %
08.04.2019 03:44 9,6 C 7,2 C 6,1 C 87 % 1005,5 hPa 0,0 l/m 0 min 0 min 0 W/m 0,0 km/h (0 Bft) 95,74 %
08.04.2019 03:46 9,5 C 7,2 C 6,1 C 87 % 1005,5 hPa 0,0 l/m 0 min 0 min 0 W/m 0,0 km/h (0 Bft) 89,13 %
08.04.2019 03:48 9,4 C 7,2 C 6,1 C 87 % 1005,6 hPa 0,0 l/m 0 min 0 min 0 W/m 0,0 km/h (0 Bft) 97,87 %
08.04.2019 03:50 9,4 C 7,2 C 6,1 C 87 % 1005,7 hPa 0,0 l/m 0 min 0 min 0 W/m 0,0 km/h (0 Bft) 95,74 %
08.04.2019 03:52 9,4 C 7,2 C 6,1 C 87 % 1005,6 hPa 0,0 l/m 0 min 0 min 0 W/m 0,0 km/h (0 Bft) 93,62 %
08.04.2019 03:54 9,3 C 7,2 C 6,1 C 87 % 1005,6 hPa 0,0 l/m 0 min 0 min 0 W/m 0,0 km/h (0 Bft) 95,74 %
08.04.2019 03:56 9,3 C 7,2 C 6,1 C 87 % 1005,6 hPa 0,0 l/m 0 min 0 min 0 W/m 0,0 km/h (0 Bft) 93,62 %
08.04.2019 03:58 9,2 C 7,2 C 6,1 C 87 % 1005,6 hPa 0,0 l/m 0 min 0 min 0 W/m 0,0 km/h (0 Bft) 95,65 %
08.04.2019 04:00 9,2 C 7,2 C 6,1 C 87 % 1005,6 hPa 0,0 l/m 0 min 0 min 0 W/m 0,0 km/h (0 Bft) 93,62 %
08.04.2019 04:02 9,2 C 7,2 C 6,1 C 87 % 1005,7 hPa 0,0 l/m 0 min 0 min 0 W/m 0,0 km/h (0 Bft) 100,00 %
08.04.2019 04:04 9,2 C 7,2 C 6,1 C 87 % 1005,7 hPa 0,0 l/m 0 min 0 min 0 W/m 0,0 km/h (0 Bft) 95,74 %
08.04.2019 04:06 9,1 C 7,2 C 6,1 C 87 % 1005,8 hPa 0,0 l/m 0 min 0 min 0 W/m 0,0 km/h (0 Bft) 93,62 %
08.04.2019 04:08 9,1 C 6,7 C 6,1 C 87 % 1005,7 hPa 0,0 l/m 0 min 0 min 0 W/m 0,0 km/h (0 Bft) 97,87 %
08.04.2019 04:10 9,0 C 6,7 C 6,1 C 87 % 1005,8 hPa 0,0 l/m 0 min 0 min 0 W/m 0,0 km/h (0 Bft) 97,83 %
08.04.2019 04:12 9,0 C 6,7 C 6,1 C 87 % 1005,8 hPa 0,0 l/m 0 min 0 min 0 W/m 0,0 km/h (0 Bft) 100,00 %
08.04.2019 04:14 8,9 C 6,7 C 5,6 C 87 % 1005,7 hPa 0,0 l/m 0 min 0 min 0 W/m 0,0 km/h (0 Bft) 97,87 %
08.04.2019 04:16 8,9 C 6,7 C 5,6 C 87 % 1005,8 hPa 0,0 l/m 0 min 0 min 0 W/m 0,0 km/h (0 Bft) 97,87 %
08.04.2019 04:18 8,9 C 6,7 C 5,6 C 87 % 1005,7 hPa 0,0 l/m 0 min 0 min 0 W/m 0,0 km/h (0 Bft) 97,87 %
08.04.2019 04:20 8,8 C 6,7 C 5,6 C 88 % 1005,7 hPa 0,0 l/m 0 min 0 min 0 W/m 0,0 km/h (0 Bft) 97,83 %
08.04.2019 04:22 8,8 C 6,7 C 5,6 C 88 % 1005,7 hPa 0,0 l/m 0 min 0 min 0 W/m 0,0 km/h (0 Bft) 100,00 %
08.04.2019 04:24 8,7 C 6,7 C 5,6 C 88 % 1005,7 hPa 0,0 l/m 0 min 0 min 0 W/m 0,0 km/h (0 Bft) 100,00 %
08.04.2019 04:26 8,7 C 6,7 C 5,6 C 88 % 1005,8 hPa 0,0 l/m 0 min 0 min 0 W/m 0,0 km/h (0 Bft) 97,87 %
08.04.2019 04:28 8,7 C 7,2 C 5,6 C 88 % 1005,7 hPa 0,0 l/m 0 min 0 min 0 W/m 0,0 km/h (0 Bft) 100,00 %
08.04.2019 04:30 8,6 C 7,2 C 5,6 C 88 % 1005,7 hPa 0,0 l/m 0 min 0 min 0 W/m 0,0 km/h (0 Bft) 100,00 %
08.04.2019 04:32 8,6 C 7,2 C 5,6 C 88 % 1005,8 hPa 0,0 l/m 0 min 0 min 0 W/m 0,0 km/h (0 Bft) 100,00 %
08.04.2019 04:34 8,6 C 7,2 C 5,6 C 88 % 1005,8 hPa 0,0 l/m 0 min 0 min 0 W/m 0,0 km/h (0 Bft) 100,00 %
08.04.2019 04:36 8,5 C 7,2 C 5,6 C 88 % 1005,7 hPa 0,0 l/m 0 min 0 min 0 W/m 0,0 km/h (0 Bft) 100,00 %
08.04.2019 04:38 8,5 C 7,2 C 5,6 C 88 % 1005,7 hPa 0,0 l/m 0 min 0 min 0 W/m 0,0 km/h (0 Bft) 100,00 %
08.04.2019 04:40 8,4 C 6,7 C 5,6 C 88 % 1005,7 hPa 0,0 l/m 0 min 0 min 0 W/m 0,0 km/h (0 Bft) 100,00 %
08.04.2019 04:42 8,4 C 6,7 C 5,6 C 88 % 1005,8 hPa 0,0 l/m 0 min 0 min 0 W/m 0,0 km/h (0 Bft) 100,00 %
08.04.2019 04:44 8,4 C 6,7 C 5,6 C 88 % 1005,8 hPa 0,0 l/m 0 min 0 min 0 W/m 0,0 km/h (0 Bft) 100,00 %
08.04.2019 04:46 8,4 C 6,7 C 5,6 C 88 % 1005,8 hPa 0,0 l/m 0 min 0 min 0 W/m 0,0 km/h (0 Bft) 95,74 %
08.04.2019 04:48 8,3 C 6,1 C 5,6 C 88 % 1005,8 hPa 0,0 l/m 0 min 0 min 0 W/m 0,0 km/h (0 Bft) 97,87 %
08.04.2019 04:50 8,3 C 6,1 C 5,6 C 88 % 1005,8 hPa 0,0 l/m 0 min 0 min 0 W/m 0,0 km/h (0 Bft) 97,87 %
08.04.2019 04:52 8,2 C 6,1 C 5,6 C 88 % 1005,8 hPa 0,0 l/m 0 min 0 min 0 W/m 0,0 km/h (0 Bft) 100,00 %
08.04.2019 04:54 8,2 C 6,1 C 5,6 C 88 % 1005,8 hPa 0,0 l/m 0 min 0 min 0 W/m 0,0 km/h (0 Bft) 97,87 %
08.04.2019 04:56 8,2 C 6,1 C 5,0 C 88 % 1005,8 hPa 0,0 l/m 0 min 0 min 0 W/m 0,0 km/h (0 Bft) 95,65 %
08.04.2019 04:58 8,2 C 6,1 C 5,0 C 88 % 1005,8 hPa 0,0 l/m 0 min 0 min 0 W/m 0,0 km/h (0 Bft) 97,87 %
08.04.2019 05:00 8,1 C 6,1 C 5,0 C 88 % 1005,7 hPa 0,0 l/m 0 min 0 min 0 W/m 0,0 km/h (0 Bft) 97,87 %
08.04.2019 05:02 8,1 C 6,1 C 5,0 C 88 % 1005,7 hPa 0,0 l/m 0 min 0 min 0 W/m 0,0 km/h (0 Bft) 97,87 %
08.04.2019 05:04 8,1 C 6,1 C 5,0 C 89 % 1005,7 hPa 0,0 l/m 0 min 0 min 0 W/m 0,0 km/h (0 Bft) 97,87 %
08.04.2019 05:05 8,0 C 6,1 C 5,0 C 89 % 1005,7 hPa 0,0 l/m 0 min 0 min 0 W/m 0,0 km/h (0 Bft) 100,00 %
08.04.2019 05:10 7,9 C 6,1 C 5,0 C 89 % 1005,7 hPa 0,0 l/m 0 min 0 min 0 W/m 0,0 km/h (0 Bft) 100,00 %
08.04.2019 05:12 7,9 C 6,1 C 5,0 C 89 % 1005,7 hPa 0,0 l/m 0 min 0 min 0 W/m 0,0 km/h (0 Bft) 94,12 %
08.04.2019 05:14 7,9 C 6,1 C 5,0 C 88 % 1005,7 hPa 0,0 l/m 0 min 0 min 0 W/m 0,0 km/h (0 Bft) 95,74 %
08.04.2019 05:16 7,8 C 6,1 C 5,0 C 88 % 1005,8 hPa 0,0 l/m 0 min 0 min 0 W/m 0,0 km/h (0 Bft) 100,00 %
08.04.2019 05:18 7,8 C 6,1 C 5,0 C 88 % 1005,7 hPa 0,0 l/m 0 min 0 min 0 W/m 0,0 km/h (0 Bft) 95,74 %
08.04.2019 05:20 7,8 C 6,1 C 5,0 C 89 % 1005,8 hPa 0,0 l/m 0 min 0 min 0 W/m 0,0 km/h (0 Bft) 97,92 %
08.04.2019 05:22 7,8 C 6,1 C 5,0 C 89 % 1005,8 hPa 0,0 l/m 0 min 0 min 0 W/m 0,0 km/h (0 Bft) 97,87 %
08.04.2019 05:24 7,7 C 6,1 C 5,0 C 89 % 1005,9 hPa 0,0 l/m 0 min 0 min 0 W/m 0,0 km/h (0 Bft) 97,87 %
08.04.2019 05:26 7,7 C 6,7 C 5,0 C 89 % 1006,0 hPa 0,0 l/m 0 min 0 min 0 W/m 0,0 km/h (0 Bft) 97,87 %
08.04.2019 05:28 7,7 C 6,7 C 5,6 C 89 % 1006,0 hPa 0,0 l/m 0 min 0 min 0 W/m 0,0 km/h (0 Bft) 97,62 %
08.04.2019 05:30 7,7 C 7,2 C 5,6 C 89 % 1006,0 hPa 0,0 l/m 0 min 0 min 0 W/m 3,2 km/h (1 Bft) 93,88 %
08.04.2019 05:32 7,7 C 7,2 C 5,6 C 90 % 1006,0 hPa 0,0 l/m 0 min 0 min 0 W/m 3,2 km/h (1 Bft) 97,87 %
08.04.2019 05:34 7,8 C 7,2 C 6,1 C 90 % 1006,2 hPa 0,0 l/m 0 min 0 min 0 W/m 3,2 km/h (1 Bft) 95,92 %
08.04.2019 05:36 7,8 C 7,2 C 5,6 C 91 % 1006,1 hPa 0,0 l/m 0 min 0 min 0 W/m 0,0 km/h (0 Bft) 93,48 %
08.04.2019 05:38 7,8 C 6,7 C 5,6 C 91 % 1006,1 hPa 0,0 l/m 0 min 0 min 0 W/m 0,0 km/h (0 Bft) 100,00 %
08.04.2019 05:40 7,8 C 6,7 C 5,6 C 91 % 1006,1 hPa 0,0 l/m 0 min 0 min 0 W/m 0,0 km/h (0 Bft) 100,00 %
08.04.2019 05:42 7,8 C 6,7 C 5,6 C 91 % 1006,1 hPa 0,0 l/m 0 min 0 min 0 W/m 0,0 km/h (0 Bft) 97,83 %
08.04.2019 05:44 7,8 C 6,1 C 5,6 C 91 % 1006,1 hPa 0,0 l/m 0 min 0 min 0 W/m 0,0 km/h (0 Bft) 97,87 %
08.04.2019 05:46 7,8 C 6,1 C 5,0 C 91 % 1006,1 hPa 0,0 l/m 0 min 0 min 0 W/m 0,0 km/h (0 Bft) 93,62 %
08.04.2019 05:48 7,7 C 6,1 C 5,0 C 91 % 1006,1 hPa 0,0 l/m 0 min 0 min 0 W/m 0,0 km/h (0 Bft) 97,62 %
08.04.2019 05:50 7,7 C 6,1 C 5,0 C 91 % 1006,2 hPa 0,0 l/m 0 min 0 min 0 W/m 0,0 km/h (0 Bft) 97,96 %
08.04.2019 05:52 7,7 C 6,1 C 5,0 C 91 % 1006,2 hPa 0,0 l/m 0 min 0 min 0 W/m 0,0 km/h (0 Bft) 98,00 %
08.04.2019 05:54 7,7 C 6,7 C 5,0 C 91 % 1006,3 hPa 0,0 l/m 0 min 0 min 0 W/m 0,0 km/h (0 Bft) 95,65 %
08.04.2019 05:56 7,7 C 6,7 C 5,0 C 91 % 1006,4 hPa 0,0 l/m 0 min 0 min 0 W/m 0,0 km/h (0 Bft) 97,87 %
08.04.2019 05:58 7,7 C 6,7 C 5,0 C 91 % 1006,3 hPa 0,0 l/m 0 min 0 min 0 W/m 0,0 km/h (0 Bft) 97,67 %
08.04.2019 06:00 7,7 C 6,1 C 5,0 C 91 % 1006,4 hPa 0,0 l/m 0 min 0 min 0 W/m 0,0 km/h (0 Bft) 97,83 %
08.04.2019 06:02 7,7 C 6,1 C 5,0 C 91 % 1006,4 hPa 0,0 l/m 0 min 0 min 0 W/m 0,0 km/h (0 Bft) 98,00 %
08.04.2019 06:04 7,6 C 6,1 C 5,0 C 91 % 1006,4 hPa 0,0 l/m 0 min 0 min 0 W/m 0,0 km/h (0 Bft) 97,87 %
08.04.2019 06:07 7,6 C 6,1 C 5,0 C 91 % 1006,4 hPa 0,0 l/m 0 min 0 min 0 W/m 0,0 km/h (0 Bft) 97,22 %
08.04.2019 06:08 7,6 C 6,7 C 5,0 C 91 % 1006,4 hPa 0,0 l/m 0 min 0 min 0 W/m 0,0 km/h (0 Bft) 95,65 %
08.04.2019 06:10 7,6 C 6,1 C 5,0 C 91 % 1006,4 hPa 0,0 l/m 0 min 0 min 0 W/m 0,0 km/h (0 Bft) 97,87 %
08.04.2019 06:12 7,6 C 6,1 C 5,0 C 91 % 1006,4 hPa 0,0 l/m 0 min 0 min 0 W/m 0,0 km/h (0 Bft) 97,62 %
08.04.2019 06:14 7,5 C 6,1 C 5,0 C 91 % 1006,4 hPa 0,0 l/m 0 min 0 min 0 W/m 0,0 km/h (0 Bft) 97,87 %
08.04.2019 06:16 7,5 C 6,1 C 5,0 C 91 % 1006,4 hPa 0,0 l/m 0 min 0 min 0 W/m 0,0 km/h (0 Bft) 97,96 %
08.04.2019 06:18 7,5 C 6,1 C 5,0 C 91 % 1006,4 hPa 0,0 l/m 0 min 0 min 0 W/m 0,0 km/h (0 Bft) 100,00 %
08.04.2019 06:20 7,4 C 6,1 C 5,0 C 91 % 1006,5 hPa 0,0 l/m 0 min 0 min 0 W/m 0,0 km/h (0 Bft) 100,00 %
08.04.2019 06:22 7,4 C 6,1 C 5,0 C 91 % 1006,4 hPa 0,0 l/m 0 min 0 min 0 W/m 0,0 km/h (0 Bft) 100,00 %
08.04.2019 06:24 7,4 C 6,1 C 5,0 C 91 % 1006,4 hPa 0,0 l/m 0 min 0 min 0 W/m 0,0 km/h (0 Bft) 100,00 %
08.04.2019 06:26 7,4 C 6,1 C 5,0 C 91 % 1006,4 hPa 0,0 l/m 0 min 0 min 0 W/m 0,0 km/h (0 Bft) 100,00 %
08.04.2019 06:28 7,4 C 6,1 C 5,0 C 91 % 1006,5 hPa 0,0 l/m 0 min 0 min 0 W/m 0,0 km/h (0 Bft) 100,00 %
08.04.2019 06:30 7,4 C 6,1 C 5,0 C 91 % 1006,4 hPa 0,0 l/m 0 min 0 min 0 W/m 0,0 km/h (0 Bft) 100,00 %
08.04.2019 06:32 7,3 C 5,6 C 5,0 C 91 % 1006,4 hPa 0,0 l/m 0 min 0 min 0 W/m 0,0 km/h (0 Bft) 100,00 %
08.04.2019 06:34 7,3 C 5,6 C 5,0 C 91 % 1006,4 hPa 0,0 l/m 0 min 0 min 0 W/m 0,0 km/h (0 Bft) 100,00 %
08.04.2019 06:36 7,3 C 6,1 C 5,0 C 91 % 1006,5 hPa 0,0 l/m 0 min 0 min 0 W/m 0,0 km/h (0 Bft) 100,00 %
08.04.2019 06:38 7,3 C 6,7 C 5,0 C 92 % 1006,6 hPa 0,0 l/m 0 min 0 min 0 W/m 3,2 km/h (1 Bft) 100,00 %
08.04.2019 06:40 7,3 C 6,7 C 5,6 C 92 % 1006,6 hPa 0,0 l/m 0 min 0 min 0 W/m 0,0 km/h (0 Bft) 97,56 %
08.04.2019 06:42 7,3 C 6,7 C 5,0 C 92 % 1006,6 hPa 0,0 l/m 0 min 0 min 0 W/m 0,0 km/h (0 Bft) 97,96 %
08.04.2019 06:44 7,3 C 6,7 C 5,0 C 92 % 1006,6 hPa 0,0 l/m 0 min 0 min 0 W/m 0,0 km/h (0 Bft) 100,00 %
08.04.2019 06:46 7,3 C 6,1 C 5,0 C 92 % 1006,6 hPa 0,0 l/m 0 min 0 min 0 W/m 0,0 km/h (0 Bft) 100,00 %
08.04.2019 06:48 7,3 C 6,7 C 5,0 C 92 % 1006,6 hPa 0,0 l/m 0 min 0 min 0 W/m 0,0 km/h (0 Bft) 97,87 %
08.04.2019 06:50 7,3 C 6,7 C 5,0 C 92 % 1006,6 hPa 0,0 l/m 0 min 0 min 0 W/m 0,0 km/h (0 Bft) 100,00 %
08.04.2019 06:52 7,3 C 6,7 C 5,0 C 92 % 1006,6 hPa 0,0 l/m 0 min 0 min 0 W/m 0,0 km/h (0 Bft) 100,00 %
08.04.2019 06:54 7,3 C 6,7 C 5,0 C 93 % 1006,5 hPa 0,0 l/m 0 min 0 min 0 W/m 0,0 km/h (0 Bft) 95,74 %
08.04.2019 06:56 7,3 C 6,1 C 5,0 C 93 % 1006,5 hPa 0,0 l/m 0 min 0 min 0 W/m 0,0 km/h (0 Bft) 97,96 %
08.04.2019 06:58 7,3 C 6,1 C 5,0 C 93 % 1006,5 hPa 0,0 l/m 0 min 0 min 0 W/m 0,0 km/h (0 Bft) 97,96 %
08.04.2019 07:00 7,3 C 6,1 C 5,0 C 93 % 1006,4 hPa 0,0 l/m 0 min 0 min 0 W/m 0,0 km/h (0 Bft) 97,87 %
08.04.2019 07:02 7,3 C 6,1 C 5,0 C 93 % 1006,5 hPa 0,0 l/m 0 min 0 min 4 W/m 0,0 km/h (0 Bft) 97,92 %
08.04.2019 07:04 7,3 C 6,1 C 5,0 C 93 % 1006,5 hPa 0,0 l/m 0 min 0 min 5 W/m 0,0 km/h (0 Bft) 97,83 %
08.04.2019 07:06 7,3 C 6,7 C 5,6 C 93 % 1006,4 hPa 0,0 l/m 0 min 0 min 6 W/m 3,2 km/h (1 Bft) 97,87 %
08.04.2019 07:08 7,3 C 6,7 C 5,6 C 93 % 1006,5 hPa 0,0 l/m 0 min 0 min 7 W/m 0,0 km/h (0 Bft) 95,74 %
08.04.2019 07:10 7,3 C 6,7 C 6,1 C 93 % 1006,5 hPa 0,0 l/m 0 min 0 min 7 W/m 0,0 km/h (0 Bft) 97,87 %
08.04.2019 07:12 7,3 C 6,7 C 6,1 C 93 % 1006,7 hPa 0,0 l/m 0 min 0 min 8 W/m 0,0 km/h (0 Bft) 95,24 %
08.04.2019 07:14 7,4 C 6,7 C 6,1 C 93 % 1006,6 hPa 0,0 l/m 0 min 0 min 9 W/m 0,0 km/h (0 Bft) 97,96 %
08.04.2019 07:16 7,4 C 6,7 C 6,1 C 93 % 1006,7 hPa 0,0 l/m 0 min 0 min 11 W/m 0,0 km/h (0 Bft) 97,96 %
08.04.2019 07:18 7,4 C 6,7 C 6,1 C 93 % 1006,6 hPa 0,0 l/m 0 min 0 min 12 W/m 0,0 km/h (0 Bft) 97,87 %
08.04.2019 07:20 7,4 C 7,2 C 6,7 C 93 % 1006,6 hPa 0,0 l/m 0 min 0 min 12 W/m 0,0 km/h (0 Bft) 97,87 %
08.04.2019 07:22 7,4 C 7,2 C 6,7 C 93 % 1006,6 hPa 0,0 l/m 0 min 0 min 12 W/m 0,0 km/h (0 Bft) 97,56 %
08.04.2019 07:25 7,5 C 7,2 C 6,7 C 94 % 1006,7 hPa 0,0 l/m 0 min 0 min 14 W/m 3,2 km/h (1 Bft) 98,67 %
08.04.2019 07:26 7,6 C 7,2 C 6,7 C 94 % 1006,7 hPa 0,0 l/m 0 min 0 min 14 W/m 3,2 km/h (1 Bft) 91,30 %
08.04.2019 07:28 7,6 C 7,2 C 7,2 C 94 % 1006,7 hPa 0,0 l/m 0 min 0 min 15 W/m 0,0 km/h (0 Bft) 97,92 %
08.04.2019 07:30 7,7 C 7,8 C 7,2 C 94 % 1006,7 hPa 0,0 l/m 0 min 0 min 16 W/m 3,2 km/h (1 Bft) 95,74 %
08.04.2019 07:32 7,8 C 7,8 C 7,2 C 94 % 1006,8 hPa 0,0 l/m 0 min 0 min 17 W/m 3,2 km/h (1 Bft) 93,62 %
08.04.2019 07:34 7,8 C 7,8 C 7,2 C 94 % 1006,8 hPa 0,0 l/m 0 min 0 min 18 W/m 0,0 km/h (0 Bft) 95,74 %
08.04.2019 07:36 7,8 C 7,8 C 7,2 C 94 % 1006,9 hPa 0,0 l/m 0 min 0 min 18 W/m 3,2 km/h (1 Bft) 97,62 %
08.04.2019 07:38 7,9 C 7,8 C 7,2 C 94 % 1006,8 hPa 0,0 l/m 0 min 0 min 19 W/m 3,2 km/h (1 Bft) 95,92 %
08.04.2019 07:40 8,0 C 7,8 C 7,2 C 95 % 1006,9 hPa 0,0 l/m 0 min 0 min 19 W/m 0,0 km/h (0 Bft) 93,88 %
08.04.2019 07:42 8,1 C 7,8 C 7,2 C 95 % 1006,9 hPa 0,0 l/m 0 min 0 min 21 W/m 0,0 km/h (0 Bft) 95,74 %
08.04.2019 07:44 8,1 C 7,8 C 7,2 C 95 % 1006,9 hPa 0,0 l/m 0 min 0 min 21 W/m 3,2 km/h (1 Bft) 93,62 %
08.04.2019 07:45 8,2 C 7,8 C 7,2 C 95 % 1006,9 hPa 0,0 l/m 0 min 0 min 21 W/m 3,2 km/h (1 Bft) 97,37 %
08.04.2019 07:48 8,3 C 7,8 C 7,2 C 95 % 1006,9 hPa 0,0 l/m 0 min 0 min 21 W/m 3,2 km/h (1 Bft) 94,23 %
08.04.2019 07:50 8,3 C 7,8 C 7,2 C 95 % 1006,9 hPa 0,0 l/m 0 min 0 min 21 W/m 3,2 km/h (1 Bft) 93,75 %
08.04.2019 07:52 8,4 C 7,8 C 7,2 C 95 % 1007,0 hPa 0,0 l/m 0 min 0 min 21 W/m 0,0 km/h (0 Bft) 92,00 %
08.04.2019 07:54 8,4 C 7,8 C 7,8 C 95 % 1007,0 hPa 0,0 l/m 0 min 0 min 21 W/m 0,0 km/h (0 Bft) 93,48 %
08.04.2019 07:56 8,4 C 7,8 C 7,8 C 95 % 1007,1 hPa 0,0 l/m 0 min 0 min 23 W/m 0,0 km/h (0 Bft) 95,74 %
08.04.2019 07:58 8,4 C 7,8 C 7,8 C 95 % 1007,1 hPa 0,0 l/m 0 min 0 min 23 W/m 3,2 km/h (1 Bft) 94,74 %
08.04.2019 08:00 8,5 C 7,8 C 7,8 C 96 % 1007,1 hPa 0,0 l/m 0 min 0 min 25 W/m 6,4 km/h (2 Bft) 94,00 %
08.04.2019 08:02 8,5 C 7,8 C 7,8 C 95 % 1007,0 hPa 0,0 l/m 0 min 0 min 26 W/m 3,2 km/h (1 Bft) 94,00 %
08.04.2019 08:04 8,6 C 7,8 C 7,8 C 96 % 1007,0 hPa 0,0 l/m 0 min 0 min 28 W/m 9,7 km/h (2 Bft) 93,75 %
08.04.2019 08:06 8,6 C 7,8 C 7,8 C 96 % 1007,0 hPa 0,0 l/m 0 min 0 min 30 W/m 9,7 km/h (2 Bft) 95,74 %
08.04.2019 08:08 8,6 C 7,8 C 7,8 C 96 % 1007,1 hPa 0,0 l/m 0 min 0 min 31 W/m 0,0 km/h (0 Bft) 93,75 %
08.04.2019 08:10 8,6 C 7,8 C 7,8 C 96 % 1007,1 hPa 0,0 l/m 0 min 0 min 31 W/m 3,2 km/h (1 Bft) 95,74 %
08.04.2019 08:12 8,6 C 7,8 C 7,8 C 96 % 1007,2 hPa 0,0 l/m 0 min 0 min 32 W/m 3,2 km/h (1 Bft) 96,00 %
08.04.2019 08:14 8,6 C 7,8 C 7,8 C 96 % 1007,3 hPa 0,0 l/m 0 min 0 min 32 W/m 0,0 km/h (0 Bft) 95,74 %
08.04.2019 08:16 8,6 C 7,8 C 7,8 C 96 % 1007,3 hPa 0,0 l/m 0 min 0 min 31 W/m 3,2 km/h (1 Bft) 92,86 %
08.04.2019 08:18 8,6 C 7,8 C 7,8 C 96 % 1007,3 hPa 0,0 l/m 0 min 0 min 32 W/m 0,0 km/h (0 Bft) 93,75 %
08.04.2019 08:20 8,6 C 7,8 C 7,8 C 96 % 1007,3 hPa 0,0 l/m 0 min 0 min 36 W/m 0,0 km/h (0 Bft) 95,92 %
08.04.2019 08:22 8,6 C 7,8 C 7,8 C 96 % 1007,2 hPa 0,0 l/m 0 min 0 min 39 W/m 3,2 km/h (1 Bft) 95,83 %
08.04.2019 08:24 8,6 C 8,3 C 7,8 C 96 % 1007,2 hPa 0,0 l/m 0 min 0 min 45 W/m 3,2 km/h (1 Bft) 97,87 %
08.04.2019 08:26 8,6 C 8,3 C 7,8 C 96 % 1007,2 hPa 0,0 l/m 0 min 0 min 47 W/m 0,0 km/h (0 Bft) 100,00 %
08.04.2019 08:28 8,7 C 8,3 C 7,8 C 96 % 1007,2 hPa 0,0 l/m 0 min 0 min 49 W/m 0,0 km/h (0 Bft) 93,88 %
08.04.2019 08:30 8,7 C 8,3 C 7,8 C 96 % 1007,3 hPa 0,0 l/m 0 min 0 min 50 W/m 0,0 km/h (0 Bft) 95,92 %
08.04.2019 08:32 8,7 C 8,3 C 7,8 C 96 % 1007,3 hPa 0,0 l/m 0 min 0 min 52 W/m 0,0 km/h (0 Bft) 95,92 %
08.04.2019 08:34 8,7 C 8,3 C 7,8 C 96 % 1007,3 hPa 0,0 l/m 0 min 0 min 49 W/m 0,0 km/h (0 Bft) 100,00 %
08.04.2019 08:36 8,7 C 8,3 C 7,8 C 96 % 1007,5 hPa 0,0 l/m 0 min 0 min 46 W/m 3,2 km/h (1 Bft) 95,92 %
08.04.2019 08:38 8,7 C 8,3 C 7,8 C 96 % 1007,5 hPa 0,0 l/m 0 min 0 min 45 W/m 0,0 km/h (0 Bft) 100,00 %
08.04.2019 08:40 8,7 C 8,3 C 7,8 C 96 % 1007,5 hPa 0,0 l/m 0 min 0 min 47 W/m 0,0 km/h (0 Bft) 100,00 %
08.04.2019 08:42 8,7 C 8,3 C 7,8 C 96 % 1007,5 hPa 0,0 l/m 0 min 0 min 50 W/m 0,0 km/h (0 Bft) 100,00 %
08.04.2019 08:44 8,7 C 8,3 C 8,3 C 96 % 1007,5 hPa 0,0 l/m 0 min 0 min 53 W/m 0,0 km/h (0 Bft) 100,00 %
08.04.2019 08:46 8,7 C 8,3 C 8,3 C 96 % 1007,5 hPa 0,0 l/m 0 min 0 min 54 W/m 0,0 km/h (0 Bft) 100,00 %
08.04.2019 08:48 8,8 C 8,3 C 8,3 C 96 % 1007,5 hPa 0,0 l/m 0 min 0 min 56 W/m 3,2 km/h (1 Bft) 100,00 %
08.04.2019 08:50 8,8 C 8,3 C 8,3 C 96 % 1007,5 hPa 0,0 l/m 0 min 0 min 60 W/m 0,0 km/h (0 Bft) 100,00 %
08.04.2019 08:52 8,8 C 8,3 C 8,3 C 96 % 1007,5 hPa 0,0 l/m 0 min 0 min 65 W/m 3,2 km/h (1 Bft) 100,00 %
08.04.2019 08:54 8,8 C 8,3 C 8,3 C 96 % 1007,4 hPa 0,0 l/m 0 min 0 min 65 W/m 0,0 km/h (0 Bft) 100,00 %
08.04.2019 08:56 8,9 C 8,9 C 8,3 C 97 % 1007,5 hPa 0,0 l/m 0 min 0 min 73 W/m 0,0 km/h (0 Bft) 100,00 %
08.04.2019 08:58 8,9 C 8,9 C 8,3 C 97 % 1007,5 hPa 0,0 l/m 0 min 0 min 68 W/m 6,4 km/h (2 Bft) 100,00 %
08.04.2019 09:00 8,9 C 8,9 C 8,3 C 97 % 1007,5 hPa 0,0 l/m 0 min 0 min 73 W/m 0,0 km/h (0 Bft) 98,21 %
08.04.2019 09:02 8,9 C 8,9 C 8,3 C 97 % 1007,5 hPa 0,0 l/m 0 min 0 min 68 W/m 0,0 km/h (0 Bft) 97,56 %
08.04.2019 09:04 8,9 C 8,9 C 8,9 C 97 % 1007,5 hPa 0,0 l/m 0 min 0 min 69 W/m 0,0 km/h (0 Bft) 97,87 %
08.04.2019 09:06 9,0 C 9,4 C 8,9 C 97 % 1007,6 hPa 0,0 l/m 0 min 0 min 70 W/m 3,2 km/h (1 Bft) 100,00 %
08.04.2019 09:08 9,1 C 9,4 C 8,9 C 97 % 1007,6 hPa 0,0 l/m 0 min 0 min 72 W/m 3,2 km/h (1 Bft) 100,00 %
08.04.2019 09:10 9,1 C 9,4 C 8,9 C 97 % 1007,6 hPa 0,0 l/m 0 min 0 min 87 W/m 3,2 km/h (1 Bft) 100,00 %
08.04.2019 09:12 9,1 C 9,4 C 8,9 C 97 % 1007,6 hPa 0,0 l/m 0 min 0 min 90 W/m 0,0 km/h (0 Bft) 98,00 %
08.04.2019 09:14 9,2 C 9,4 C 8,9 C 97 % 1007,6 hPa 0,0 l/m 0 min 0 min 92 W/m 3,2 km/h (1 Bft) 100,00 %
08.04.2019 09:16 9,2 C 9,4 C 8,9 C 97 % 1007,6 hPa 0,0 l/m 0 min 0 min 90 W/m 0,0 km/h (0 Bft) 100,00 %
08.04.2019 09:18 9,2 C 9,4 C 9,4 C 97 % 1007,6 hPa 0,0 l/m 0 min 0 min 76 W/m 3,2 km/h (1 Bft) 100,00 %
08.04.2019 09:20 9,2 C 10,0 C 9,4 C 97 % 1007,6 hPa 0,0 l/m 0 min 0 min 84 W/m 0,0 km/h (0 Bft) 100,00 %
08.04.2019 09:22 9,3 C 10,0 C 9,4 C 97 % 1007,6 hPa 0,0 l/m 0 min 0 min 90 W/m 3,2 km/h (1 Bft) 97,56 %
08.04.2019 09:24 9,3 C 10,0 C 9,4 C 97 % 1007,6 hPa 0,0 l/m 0 min 0 min 105 W/m 6,4 km/h (2 Bft) 98,21 %
08.04.2019 09:26 9,4 C 10,0 C 9,4 C 97 % 1007,6 hPa 0,0 l/m 0 min 0 min 124 W/m 3,2 km/h (1 Bft) 97,62 %
08.04.2019 09:28 9,4 C 10,0 C 9,4 C 97 % 1007,6 hPa 0,0 l/m 0 min 0 min 127 W/m 3,2 km/h (1 Bft) 100,00 %
08.04.2019 09:30 9,5 C 10,6 C 10,0 C 97 % 1007,7 hPa 0,0 l/m 0 min 0 min 141 W/m 0,0 km/h (0 Bft) 100,00 %
08.04.2019 09:32 9,5 C 10,6 C 10,0 C 97 % 1007,7 hPa 0,0 l/m 0 min 0 min 115 W/m 6,4 km/h (2 Bft) 100,00 %
08.04.2019 09:34 9,6 C 10,0 C 10,0 C 97 % 1007,6 hPa 0,0 l/m 0 min 0 min 112 W/m 6,4 km/h (2 Bft) 100,00 %
08.04.2019 09:36 9,6 C 10,6 C 10,0 C 97 % 1007,7 hPa 0,0 l/m 0 min 0 min 125 W/m 3,2 km/h (1 Bft) 97,92 %
08.04.2019 09:38 9,6 C 10,6 C 10,0 C 97 % 1007,7 hPa 0,0 l/m 0 min 0 min 111 W/m 0,0 km/h (0 Bft) 100,00 %
08.04.2019 09:40 9,6 C 10,6 C 10,0 C 97 % 1007,7 hPa 0,0 l/m 0 min 0 min 123 W/m 0,0 km/h (0 Bft) 100,00 %
08.04.2019 09:42 9,7 C 10,6 C 10,0 C 97 % 1007,7 hPa 0,0 l/m 0 min 0 min 116 W/m 3,2 km/h (1 Bft) 100,00 %
08.04.2019 09:44 9,7 C 10,6 C 10,0 C 97 % 1007,7 hPa 0,0 l/m 0 min 0 min 110 W/m 3,2 km/h (1 Bft) 100,00 %
08.04.2019 09:46 9,7 C 10,6 C 10,0 C 97 % 1007,7 hPa 0,0 l/m 0 min 0 min 125 W/m 6,4 km/h (2 Bft) 100,00 %
08.04.2019 09:48 9,7 C 10,6 C 10,6 C 97 % 1007,7 hPa 0,0 l/m 0 min 0 min 153 W/m 6,4 km/h (2 Bft) 100,00 %
08.04.2019 09:50 9,8 C 10,6 C 10,0 C 97 % 1007,8 hPa 0,0 l/m 0 min 0 min 149 W/m 0,0 km/h (0 Bft) 100,00 %
08.04.2019 09:52 9,8 C 10,6 C 10,6 C 97 % 1007,7 hPa 0,0 l/m 0 min 0 min 180 W/m 3,2 km/h (1 Bft) 100,00 %
08.04.2019 09:54 9,8 C 11,7 C 10,6 C 97 % 1007,8 hPa 0,0 l/m 2 min 0 min 222 W/m 0,0 km/h (0 Bft) 100,00 %
08.04.2019 09:56 9,8 C 11,7 C 10,6 C 98 % 1007,8 hPa 0,0 l/m 0 min 0 min 207 W/m 0,0 km/h (0 Bft) 98,00 %
08.04.2019 09:58 9,8 C 11,7 C 10,6 C 98 % 1007,8 hPa 0,0 l/m 0 min 0 min 197 W/m 6,4 km/h (2 Bft) 100,00 %
08.04.2019 10:00 9,8 C 11,1 C 10,6 C 98 % 1007,8 hPa 0,0 l/m 0 min 0 min 191 W/m 6,4 km/h (2 Bft) 100,00 %
08.04.2019 10:02 9,8 C 11,7 C 11,1 C 98 % 1007,8 hPa 0,0 l/m 0 min 0 min 187 W/m 0,0 km/h (0 Bft) 96,00 %
08.04.2019 10:04 9,9 C 11,7 C 11,1 C 98 % 1007,9 hPa 0,0 l/m 0 min 0 min 181 W/m 0,0 km/h (0 Bft) 100,00 %
08.04.2019 10:06 9,9 C 11,7 C 11,1 C 98 % 1007,8 hPa 0,0 l/m 0 min 0 min 197 W/m 0,0 km/h (0 Bft) 100,00 %
08.04.2019 10:08 9,9 C 11,7 C 11,1 C 98 % 1007,8 hPa 0,0 l/m 0 min 0 min 189 W/m 0,0 km/h (0 Bft) 97,87 %
08.04.2019 10:10 9,9 C 11,7 C 11,1 C 98 % 1007,8 hPa 0,0 l/m 0 min 0 min 170 W/m 0,0 km/h (0 Bft) 97,87 %
08.04.2019 10:12 10,0 C 11,7 C 11,1 C 98 % 1007,8 hPa 0,0 l/m 0 min 0 min 149 W/m 3,2 km/h (1 Bft) 97,87 %
08.04.2019 10:14 10,0 C 11,1 C 10,6 C 98 % 1007,9 hPa 0,0 l/m 0 min 0 min 167 W/m 6,4 km/h (2 Bft) 95,74 %
08.04.2019 10:16 10,0 C 11,1 C 10,6 C 98 % 1007,8 hPa 0,0 l/m 0 min 0 min 175 W/m 3,2 km/h (1 Bft) 95,65 %
08.04.2019 10:18 10,0 C 11,1 C 10,6 C 98 % 1007,8 hPa 0,0 l/m 0 min 0 min 197 W/m 3,2 km/h (1 Bft) 95,45 %
08.04.2019 10:20 10,0 C 11,7 C 10,6 C 98 % 1007,7 hPa 0,0 l/m 0 min 0 min 194 W/m 6,4 km/h (2 Bft) 95,74 %
08.04.2019 10:22 10,0 C 11,7 C 11,1 C 98 % 1007,8 hPa 0,0 l/m 0 min 0 min 162 W/m 0,0 km/h (0 Bft) 91,49 %
08.04.2019 10:24 10,1 C 11,7 C 11,1 C 98 % 1007,9 hPa 0,0 l/m 0 min 0 min 169 W/m 6,4 km/h (2 Bft) 93,62 %
08.04.2019 10:26 10,1 C 11,7 C 11,1 C 98 % 1007,9 hPa 0,0 l/m 0 min 0 min 190 W/m 3,2 km/h (1 Bft) 93,88 %
08.04.2019 10:28 10,1 C 11,7 C 11,1 C 98 % 1007,8 hPa 0,0 l/m 0 min 0 min 180 W/m 3,2 km/h (1 Bft) 93,75 %
08.04.2019 10:30 10,1 C 11,7 C 11,1 C 98 % 1007,9 hPa 0,0 l/m 0 min 0 min 196 W/m 6,4 km/h (2 Bft) 91,30 %
08.04.2019 10:32 10,2 C 11,7 C 11,1 C 98 % 1007,9 hPa 0,0 l/m 0 min 0 min 186 W/m 6,4 km/h (2 Bft) 95,83 %
08.04.2019 10:34 10,2 C 12,2 C 11,7 C 98 % 1007,9 hPa 0,0 l/m 0 min 0 min 206 W/m 3,2 km/h (1 Bft) 93,62 %
08.04.2019 10:36 10,2 C 12,2 C 11,7 C 98 % 1007,9 hPa 0,0 l/m 0 min 0 min 239 W/m 9,7 km/h (2 Bft) 93,62 %
08.04.2019 10:38 10,3 C 13,3 C 12,8 C 98 % 1007,9 hPa 0,0 l/m 2 min 0 min 305 W/m 3,2 km/h (1 Bft) 93,62 %
08.04.2019 10:40 10,3 C 15,0 C 13,3 C 98 % 1007,9 hPa 0,0 l/m 2 min 0 min 388 W/m 6,4 km/h (2 Bft) 93,48 %
08.04.2019 10:42 10,4 C 16,1 C 15,0 C 98 % 1007,9 hPa 0,0 l/m 2 min 0 min 458 W/m 9,7 km/h (2 Bft) 93,62 %
08.04.2019 10:44 10,5 C 15,6 C 15,0 C 98 % 1007,9 hPa 0,0 l/m 2 min 0 min 494 W/m 12,9 km/h (3 Bft) 95,74 %
08.04.2019 10:46 10,6 C 15,6 C 13,9 C 98 % 1007,9 hPa 0,0 l/m 2 min 0 min 515 W/m 9,7 km/h (2 Bft) 93,62 %
08.04.2019 10:48 10,7 C 16,7 C 15,0 C 98 % 1008,0 hPa 0,0 l/m 2 min 0 min 442 W/m 6,4 km/h (2 Bft) 89,36 %
08.04.2019 10:50 10,8 C 16,7 C 15,0 C 98 % 1007,9 hPa 0,0 l/m 2 min 0 min 438 W/m 9,7 km/h (2 Bft) 93,62 %
08.04.2019 10:52 10,9 C 17,2 C 15,6 C 98 % 1007,9 hPa 0,0 l/m 2 min 0 min 469 W/m 3,2 km/h (1 Bft) 93,48 %
08.04.2019 10:54 11,1 C 18,9 C 16,7 C 98 % 1007,9 hPa 0,0 l/m 2 min 0 min 524 W/m 3,2 km/h (1 Bft) 95,74 %
08.04.2019 10:56 11,3 C 19,4 C 17,2 C 98 % 1007,9 hPa 0,0 l/m 2 min 0 min 484 W/m 9,7 km/h (2 Bft) 95,74 %
08.04.2019 10:58 11,4 C 19,4 C 17,2 C 98 % 1007,9 hPa 0,0 l/m 2 min 0 min 506 W/m 12,9 km/h (3 Bft) 93,62 %
08.04.2019 11:00 11,6 C 18,9 C 16,7 C 98 % 1008,0 hPa 0,0 l/m 2 min 0 min 507 W/m 6,4 km/h (2 Bft) 97,67 %
08.04.2019 11:02 11,6 C 18,9 C 16,1 C 98 % 1008,0 hPa 0,0 l/m 2 min 0 min 502 W/m 6,4 km/h (2 Bft) 97,96 %
08.04.2019 11:04 11,7 C 18,9 C 16,7 C 98 % 1007,9 hPa 0,0 l/m 2 min 0 min 524 W/m 6,4 km/h (2 Bft) 95,74 %
08.04.2019 11:06 11,8 C 18,9 C 16,1 C 98 % 1007,9 hPa 0,0 l/m 2 min 0 min 526 W/m 6,4 km/h (2 Bft) 97,92 %
08.04.2019 11:08 11,9 C 19,4 C 16,7 C 98 % 1007,9 hPa 0,0 l/m 2 min 0 min 458 W/m 6,4 km/h (2 Bft) 97,87 %
08.04.2019 11:10 12,0 C 18,3 C 16,1 C 98 % 1007,9 hPa 0,0 l/m 2 min 0 min 344 W/m 6,4 km/h (2 Bft) 95,74 %
08.04.2019 11:12 12,1 C 17,2 C 15,0 C 97 % 1008,0 hPa 0,0 l/m 2 min 0 min 322 W/m 9,7 km/h (2 Bft) 97,87 %
08.04.2019 11:14 12,2 C 17,8 C 15,6 C 97 % 1007,9 hPa 0,0 l/m 2 min 0 min 370 W/m 6,4 km/h (2 Bft) 95,65 %
08.04.2019 11:16 12,2 C 18,9 C 16,1 C 97 % 1007,9 hPa 0,0 l/m 2 min 0 min 407 W/m 9,7 km/h (2 Bft) 97,87 %
08.04.2019 11:18 12,3 C 18,3 C 16,1 C 97 % 1007,9 hPa 0,0 l/m 2 min 0 min 336 W/m 6,4 km/h (2 Bft) 97,87 %
08.04.2019 11:20 12,4 C 20,0 C 17,2 C 97 % 1007,8 hPa 0,0 l/m 2 min 0 min 521 W/m 6,4 km/h (2 Bft) 97,87 %
08.04.2019 11:22 12,4 C 18,9 C 17,2 C 96 % 1007,9 hPa 0,0 l/m 2 min 0 min 561 W/m 6,4 km/h (2 Bft) 97,67 %
08.04.2019 11:24 12,6 C 18,3 C 17,2 C 96 % 1008,0 hPa 0,0 l/m 2 min 0 min 552 W/m 9,7 km/h (2 Bft) 97,87 %
08.04.2019 11:26 12,6 C 18,9 C 16,7 C 95 % 1007,9 hPa 0,0 l/m 2 min 0 min 549 W/m 6,4 km/h (2 Bft) 95,92 %
08.04.2019 11:28 12,7 C 20,0 C 16,1 C 95 % 1007,9 hPa 0,0 l/m 2 min 0 min 570 W/m 12,9 km/h (3 Bft) 97,92 %
08.04.2019 11:30 12,8 C 20,0 C 15,6 C 94 % 1007,9 hPa 0,0 l/m 2 min 0 min 588 W/m 9,7 km/h (2 Bft) 97,87 %
08.04.2019 11:32 13,0 C 20,6 C 15,6 C 94 % 1007,9 hPa 0,0 l/m 2 min 0 min 592 W/m 6,4 km/h (2 Bft) 97,87 %
08.04.2019 11:34 13,1 C 20,6 C 15,6 C 93 % 1007,9 hPa 0,0 l/m 2 min 0 min 599 W/m 6,4 km/h (2 Bft) 97,87 %
08.04.2019 11:36 13,2 C 19,4 C 15,6 C 93 % 1007,9 hPa 0,0 l/m 2 min 0 min 607 W/m 9,7 km/h (2 Bft) 97,87 %
08.04.2019 11:38 13,3 C 20,6 C 15,0 C 92 % 1007,9 hPa 0,0 l/m 2 min 0 min 590 W/m 6,4 km/h (2 Bft) 97,83 %
08.04.2019 11:40 13,5 C 22,2 C 15,6 C 91 % 1008,0 hPa 0,0 l/m 2 min 0 min 597 W/m 9,7 km/h (2 Bft) 97,87 %
08.04.2019 11:42 13,7 C 22,8 C 15,6 C 91 % 1007,9 hPa 0,0 l/m 2 min 0 min 617 W/m 6,4 km/h (2 Bft) 97,67 %
08.04.2019 11:44 13,8 C 20,0 C 15,0 C 90 % 1007,9 hPa 0,0 l/m 2 min 0 min 616 W/m 12,9 km/h (3 Bft) 95,74 %
08.04.2019 11:46 13,9 C 21,1 C 15,0 C 89 % 1007,9 hPa 0,0 l/m 2 min 0 min 623 W/m 6,4 km/h (2 Bft) 98,00 %
08.04.2019 11:48 14,2 C 20,0 C 15,0 C 88 % 1007,9 hPa 0,0 l/m 2 min 0 min 603 W/m 9,7 km/h (2 Bft) 97,83 %
08.04.2019 11:50 14,2 C 19,4 C 14,4 C 87 % 1007,9 hPa 0,0 l/m 2 min 0 min 621 W/m 9,7 km/h (2 Bft) 97,92 %
08.04.2019 11:52 14,3 C 22,2 C 15,6 C 86 % 1007,9 hPa 0,0 l/m 2 min 0 min 610 W/m 9,7 km/h (2 Bft) 95,74 %
08.04.2019 11:54 14,5 C 23,3 C 16,1 C 86 % 1007,8 hPa 0,0 l/m 2 min 0 min 614 W/m 9,7 km/h (2 Bft) 97,87 %
08.04.2019 11:56 14,7 C 22,2 C 15,6 C 86 % 1007,9 hPa 0,0 l/m 2 min 0 min 628 W/m 6,4 km/h (2 Bft) 97,87 %
08.04.2019 11:58 14,8 C 21,1 C 15,6 C 85 % 1007,9 hPa 0,0 l/m 2 min 0 min 636 W/m 9,7 km/h (2 Bft) 97,87 %
08.04.2019 12:00 14,9 C 21,7 C 15,6 C 84 % 1007,9 hPa 0,0 l/m 2 min 0 min 604 W/m 6,4 km/h (2 Bft) 97,87 %
08.04.2019 12:02 14,9 C 20,6 C 15,0 C 83 % 1007,8 hPa 0,0 l/m 2 min 0 min 615 W/m 6,4 km/h (2 Bft) 97,83 %
08.04.2019 12:04 15,1 C 21,1 C 15,6 C 83 % 1007,8 hPa 0,0 l/m 2 min 0 min 627 W/m 6,4 km/h (2 Bft) 97,87 %
08.04.2019 12:07 15,2 C 23,3 C 16,1 C 82 % 1007,8 hPa 0,0 l/m 3 min 0 min 647 W/m 9,7 km/h (2 Bft) 97,44 %
08.04.2019 12:08 15,3 C 23,3 C 16,1 C 82 % 1007,8 hPa 0,0 l/m 1 min 0 min 634 W/m 6,4 km/h (2 Bft) 100,00 %
08.04.2019 12:10 15,4 C 23,9 C 16,1 C 82 % 1007,9 hPa 0,0 l/m 2 min 0 min 630 W/m 6,4 km/h (2 Bft) 97,87 %
08.04.2019 12:12 15,4 C 23,9 C 16,1 C 81 % 1007,9 hPa 0,0 l/m 2 min 0 min 631 W/m 9,7 km/h (2 Bft) 97,83 %
08.04.2019 12:14 15,6 C 25,0 C 16,1 C 80 % 1007,8 hPa 0,0 l/m 2 min 0 min 659 W/m 9,7 km/h (2 Bft) 97,87 %
08.04.2019 12:16 15,6 C 24,4 C 16,7 C 80 % 1007,8 hPa 0,0 l/m 2 min 0 min 673 W/m 6,4 km/h (2 Bft) 93,62 %
08.04.2019 12:18 15,7 C 23,3 C 16,1 C 79 % 1007,8 hPa 0,0 l/m 2 min 0 min 668 W/m 9,7 km/h (2 Bft) 97,87 %
08.04.2019 12:20 15,8 C 24,4 C 16,7 C 79 % 1007,7 hPa 0,0 l/m 2 min 0 min 674 W/m 9,7 km/h (2 Bft) 97,87 %
08.04.2019 12:22 15,9 C 25,0 C 16,7 C 79 % 1007,7 hPa 0,0 l/m 2 min 0 min 677 W/m 9,7 km/h (2 Bft) 95,74 %
08.04.2019 12:24 16,1 C 24,4 C 17,2 C 79 % 1007,6 hPa 0,0 l/m 2 min 0 min 673 W/m 6,4 km/h (2 Bft) 93,48 %
08.04.2019 12:26 16,2 C 25,0 C 17,2 C 78 % 1007,7 hPa 0,0 l/m 2 min 0 min 688 W/m 12,9 km/h (3 Bft) 93,62 %
08.04.2019 12:28 16,4 C 24,4 C 17,2 C 77 % 1007,7 hPa 0,0 l/m 2 min 0 min 695 W/m 9,7 km/h (2 Bft) 93,62 %
08.04.2019 12:30 16,5 C 25,6 C 17,2 C 78 % 1007,7 hPa 0,0 l/m 2 min 0 min 689 W/m 9,7 km/h (2 Bft) 93,62 %
08.04.2019 12:32 16,6 C 24,4 C 17,2 C 77 % 1007,6 hPa 0,0 l/m 2 min 0 min 688 W/m 6,4 km/h (2 Bft) 93,62 %
08.04.2019 12:34 16,7 C 25,0 C 16,7 C 76 % 1007,6 hPa 0,0 l/m 2 min 0 min 698 W/m 9,7 km/h (2 Bft) 95,74 %
08.04.2019 12:36 16,8 C 26,1 C 17,8 C 76 % 1007,6 hPa 0,0 l/m 2 min 0 min 703 W/m 9,7 km/h (2 Bft) 86,21 %
08.04.2019 12:38 17,0 C 26,1 C 17,8 C 77 % 1007,6 hPa 0,0 l/m 2 min 0 min 695 W/m 16,1 km/h (3 Bft) 88,57 %
08.04.2019 12:40 17,2 C 26,7 C 18,3 C 77 % 1007,6 hPa 0,0 l/m 2 min 0 min 688 W/m 12,9 km/h (3 Bft) 82,98 %
08.04.2019 12:42 17,3 C 24,4 C 17,8 C 77 % 1007,6 hPa 0,0 l/m 2 min 0 min 692 W/m 9,7 km/h (2 Bft) 93,62 %
08.04.2019 12:44 17,4 C 24,4 C 17,2 C 75 % 1007,6 hPa 0,0 l/m 2 min 0 min 696 W/m 9,7 km/h (2 Bft) 91,49 %
08.04.2019 12:46 17,5 C 25,6 C 17,8 C 75 % 1007,6 hPa 0,0 l/m 2 min 0 min 709 W/m 6,4 km/h (2 Bft) 65,96 %
08.04.2019 12:48 17,6 C 26,7 C 17,8 C 76 % 1007,6 hPa 0,0 l/m 2 min 0 min 695 W/m 9,7 km/h (2 Bft) 71,74 %
08.04.2019 12:50 17,8 C 27,2 C 18,3 C 75 % 1007,6 hPa 0,0 l/m 2 min 0 min 689 W/m 9,7 km/h (2 Bft) 44,68 %
08.04.2019 12:52 17,9 C 27,8 C 18,3 C 75 % 1007,6 hPa 0,0 l/m 2 min 0 min 682 W/m 9,7 km/h (2 Bft) 65,96 %
08.04.2019 12:54 18,1 C 27,2 C 18,3 C 74 % 1007,6 hPa 0,0 l/m 2 min 0 min 696 W/m 6,4 km/h (2 Bft) 78,72 %
08.04.2019 12:56 18,1 C 25,6 C 18,3 C 74 % 1007,6 hPa 0,0 l/m 2 min 0 min 697 W/m 12,9 km/h (3 Bft) 63,83 %
08.04.2019 12:58 18,2 C 26,7 C 18,3 C 73 % 1007,6 hPa 0,0 l/m 2 min 0 min 696 W/m 9,7 km/h (2 Bft) 80,85 %
08.04.2019 13:00 18,3 C 26,1 C 18,3 C 72 % 1007,6 hPa 0,0 l/m 2 min 0 min 701 W/m 9,7 km/h (2 Bft) 84,78 %
08.04.2019 13:02 18,3 C 26,7 C 18,3 C 71 % 1007,6 hPa 0,0 l/m 2 min 0 min 712 W/m 9,7 km/h (2 Bft) 65,96 %
08.04.2019 13:04 18,4 C 27,2 C 18,3 C 71 % 1007,6 hPa 0,0 l/m 2 min 0 min 719 W/m 9,7 km/h (2 Bft) 61,70 %
08.04.2019 13:06 18,6 C 27,8 C 18,3 C 71 % 1007,6 hPa 0,0 l/m 2 min 0 min 722 W/m 9,7 km/h (2 Bft) 74,58 %
08.04.2019 13:08 18,6 C 27,2 C 18,3 C 70 % 1007,6 hPa 0,0 l/m 2 min 0 min 729 W/m 9,7 km/h (2 Bft) 54,29 %
08.04.2019 13:10 18,7 C 27,8 C 18,9 C 70 % 1007,6 hPa 0,0 l/m 2 min 0 min 732 W/m 6,4 km/h (2 Bft) 76,09 %
08.04.2019 13:12 18,8 C 28,3 C 18,9 C 70 % 1007,6 hPa 0,0 l/m 2 min 0 min 730 W/m 9,7 km/h (2 Bft) 70,21 %
08.04.2019 13:14 18,9 C 27,8 C 18,9 C 69 % 1007,5 hPa 0,0 l/m 2 min 0 min 723 W/m 9,7 km/h (2 Bft) 76,60 %
08.04.2019 13:16 19,0 C 27,2 C 18,9 C 69 % 1007,6 hPa 0,0 l/m 2 min 0 min 735 W/m 6,4 km/h (2 Bft) 57,45 %
08.04.2019 13:18 19,1 C 27,8 C 18,9 C 68 % 1007,6 hPa 0,0 l/m 2 min 0 min 740 W/m 6,4 km/h (2 Bft) 74,47 %
08.04.2019 13:20 19,2 C 28,3 C 19,4 C 69 % 1007,6 hPa 0,0 l/m 2 min 0 min 742 W/m 9,7 km/h (2 Bft) 78,72 %
08.04.2019 13:22 19,2 C 27,8 C 19,4 C 69 % 1007,6 hPa 0,0 l/m 2 min 0 min 748 W/m 9,7 km/h (2 Bft) 65,22 %
08.04.2019 13:24 19,3 C 28,3 C 20,0 C 68 % 1007,6 hPa 0,0 l/m 2 min 0 min 749 W/m 12,9 km/h (3 Bft) 34,04 %
08.04.2019 13:26 19,4 C 28,3 C 20,6 C 68 % 1007,7 hPa 0,0 l/m 2 min 0 min 750 W/m 6,4 km/h (2 Bft) 65,96 %
08.04.2019 13:28 19,5 C 27,8 C 22,2 C 67 % 1007,7 hPa 0,0 l/m 2 min 0 min 750 W/m 6,4 km/h (2 Bft) 68,09 %
08.04.2019 13:30 19,6 C 28,3 C 23,9 C 67 % 1007,7 hPa 0,0 l/m 2 min 0 min 742 W/m 12,9 km/h (3 Bft) 57,45 %
08.04.2019 13:32 19,6 C 26,7 C 24,4 C 66 % 1007,7 hPa 0,0 l/m 2 min 0 min 731 W/m 6,4 km/h (2 Bft) 74,47 %
08.04.2019 13:34 19,7 C 27,8 C 25,6 C 67 % 1007,7 hPa 0,0 l/m 2 min 0 min 721 W/m 9,7 km/h (2 Bft) 97,83 %
08.04.2019 13:36 19,8 C 28,9 C 25,6 C 66 % 1007,7 hPa 0,0 l/m 2 min 0 min 722 W/m 12,9 km/h (3 Bft) 100,00 %
08.04.2019 13:38 19,8 C 28,9 C 26,1 C 66 % 1007,7 hPa 0,0 l/m 2 min 0 min 727 W/m 12,9 km/h (3 Bft) 91,43 %
08.04.2019 13:40 19,9 C 26,1 C 25,0 C 64 % 1007,7 hPa 0,0 l/m 2 min 0 min 726 W/m 12,9 km/h (3 Bft) 95,74 %
08.04.2019 13:42 19,9 C 26,1 C 25,6 C 65 % 1007,7 hPa 0,0 l/m 2 min 0 min 735 W/m 6,4 km/h (2 Bft) 100,00 %
08.04.2019 13:44 19,9 C 26,7 C 25,6 C 64 % 1007,6 hPa 0,0 l/m 2 min 0 min 733 W/m 9,7 km/h (2 Bft) 100,00 %
08.04.2019 13:46 19,9 C 26,7 C 25,0 C 64 % 1007,7 hPa 0,0 l/m 2 min 0 min 737 W/m 6,4 km/h (2 Bft) 100,00 %
08.04.2019 13:48 19,9 C 26,1 C 25,6 C 65 % 1007,6 hPa 0,0 l/m 2 min 0 min 732 W/m 9,7 km/h (2 Bft) 100,00 %
08.04.2019 13:50 20,0 C 27,2 C 26,1 C 65 % 1007,6 hPa 0,0 l/m 2 min 0 min 730 W/m 9,7 km/h (2 Bft) 97,87 %
08.04.2019 13:52 20,1 C 26,7 C 25,6 C 65 % 1007,5 hPa 0,0 l/m 2 min 0 min 727 W/m 6,4 km/h (2 Bft) 97,87 %
08.04.2019 13:54 20,2 C 28,3 C 26,7 C 67 % 1007,6 hPa 0,0 l/m 2 min 0 min 733 W/m 9,7 km/h (2 Bft) 100,00 %
08.04.2019 13:56 20,2 C 27,2 C 26,7 C 64 % 1007,5 hPa 0,0 l/m 2 min 0 min 723 W/m 9,7 km/h (2 Bft) 100,00 %
08.04.2019 13:58 20,2 C 27,2 C 26,7 C 63 % 1007,5 hPa 0,0 l/m 2 min 0 min 720 W/m 6,4 km/h (2 Bft) 100,00 %
08.04.2019 14:00 20,3 C 26,7 C 25,6 C 63 % 1007,5 hPa 0,0 l/m 2 min 0 min 733 W/m 6,4 km/h (2 Bft) 100,00 %
08.04.2019 14:02 20,3 C 27,8 C 26,7 C 63 % 1007,5 hPa 0,0 l/m 2 min 0 min 736 W/m 9,7 km/h (2 Bft) 97,87 %
08.04.2019 14:04 20,3 C 26,7 C 27,2 C 63 % 1007,4 hPa 0,0 l/m 2 min 0 min 732 W/m 12,9 km/h (3 Bft) 100,00 %
08.04.2019 14:06 20,3 C 25,0 C 25,6 C 62 % 1007,6 hPa 0,0 l/m 2 min 0 min 732 W/m 9,7 km/h (2 Bft) 100,00 %
08.04.2019 14:08 20,3 C 25,0 C 25,6 C 62 % 1007,5 hPa 0,0 l/m 2 min 0 min 732 W/m 9,7 km/h (2 Bft) 100,00 %
08.04.2019 14:10 20,4 C 26,1 C 25,6 C 62 % 1007,5 hPa 0,0 l/m 2 min 0 min 737 W/m 9,7 km/h (2 Bft) 100,00 %
08.04.2019 14:12 20,4 C 25,0 C 25,6 C 62 % 1007,4 hPa 0,0 l/m 2 min 0 min 723 W/m 12,9 km/h (3 Bft) 100,00 %
08.04.2019 14:14 20,4 C 25,0 C 25,6 C 61 % 1007,5 hPa 0,0 l/m 2 min 0 min 705 W/m 12,9 km/h (3 Bft) 100,00 %
08.04.2019 14:16 20,4 C 24,4 C 25,6 C 61 % 1007,4 hPa 0,0 l/m 2 min 0 min 706 W/m 9,7 km/h (2 Bft) 100,00 %
08.04.2019 14:18 20,3 C 22,8 C 23,9 C 61 % 1007,4 hPa 0,0 l/m 2 min 0 min 708 W/m 12,9 km/h (3 Bft) 100,00 %
08.04.2019 14:20 20,3 C 22,2 C 23,3 C 61 % 1007,4 hPa 0,0 l/m 2 min 0 min 524 W/m 12,9 km/h (3 Bft) 100,00 %
08.04.2019 14:22 20,3 C 22,8 C 23,9 C 61 % 1007,4 hPa 0,0 l/m 2 min 0 min 542 W/m 9,7 km/h (2 Bft) 100,00 %
08.04.2019 14:24 20,2 C 22,8 C 22,8 C 62 % 1007,4 hPa 0,0 l/m 2 min 0 min 541 W/m 6,4 km/h (2 Bft) 100,00 %
08.04.2019 14:26 20,2 C 23,9 C 23,9 C 62 % 1007,4 hPa 0,0 l/m 2 min 0 min 597 W/m 6,4 km/h (2 Bft) 97,87 %
08.04.2019 14:28 20,2 C 24,4 C 24,4 C 62 % 1007,4 hPa 0,0 l/m 2 min 0 min 697 W/m 9,7 km/h (2 Bft) 97,87 %
08.04.2019 14:30 20,2 C 25,0 C 24,4 C 61 % 1007,5 hPa 0,0 l/m 2 min 0 min 712 W/m 6,4 km/h (2 Bft) 100,00 %
08.04.2019 14:32 20,2 C 26,1 C 25,6 C 62 % 1007,5 hPa 0,0 l/m 2 min 0 min 726 W/m 9,7 km/h (2 Bft) 95,65 %
08.04.2019 14:34 20,2 C 26,1 C 25,6 C 61 % 1007,4 hPa 0,0 l/m 2 min 0 min 745 W/m 6,4 km/h (2 Bft) 100,00 %
08.04.2019 14:36 20,3 C 27,2 C 26,7 C 62 % 1007,4 hPa 0,0 l/m 2 min 0 min 750 W/m 16,1 km/h (3 Bft) 100,00 %
08.04.2019 14:38 20,3 C 26,1 C 25,6 C 62 % 1007,4 hPa 0,0 l/m 2 min 0 min 765 W/m 3,2 km/h (1 Bft) 100,00 %
08.04.2019 14:40 20,4 C 26,1 C 24,4 C 63 % 1007,4 hPa 0,0 l/m 2 min 0 min 444 W/m 3,2 km/h (1 Bft) 100,00 %
08.04.2019 14:42 20,4 C 25,0 C 23,3 C 62 % 1007,4 hPa 0,0 l/m 2 min 0 min 440 W/m 9,7 km/h (2 Bft) 100,00 %
08.04.2019 14:44 20,4 C 23,9 C 23,3 C 61 % 1007,3 hPa 0,0 l/m 2 min 0 min 459 W/m 9,7 km/h (2 Bft) 100,00 %
08.04.2019 14:46 20,4 C 23,3 C 22,2 C 61 % 1007,3 hPa 0,0 l/m 2 min 0 min 460 W/m 6,4 km/h (2 Bft) 95,65 %
08.04.2019 14:48 20,5 C 23,9 C 22,8 C 61 % 1007,2 hPa 0,0 l/m 2 min 0 min 507 W/m 3,2 km/h (1 Bft) 97,87 %
08.04.2019 14:50 20,4 C 23,9 C 21,7 C 61 % 1007,3 hPa 0,0 l/m 2 min 0 min 461 W/m 12,9 km/h (3 Bft) 97,87 %
08.04.2019 14:52 20,4 C 22,2 C 20,6 C 60 % 1007,3 hPa 0,0 l/m 0 min 0 min 334 W/m 6,4 km/h (2 Bft) 97,87 %
08.04.2019 14:54 20,4 C 21,7 C 20,6 C 61 % 1007,2 hPa 0,0 l/m 0 min 0 min 316 W/m 6,4 km/h (2 Bft) 97,87 %
08.04.2019 14:56 20,4 C 21,1 C 20,6 C 60 % 1007,3 hPa 0,0 l/m 0 min 0 min 309 W/m 6,4 km/h (2 Bft) 97,83 %
08.04.2019 14:58 20,4 C 21,7 C 20,6 C 62 % 1007,3 hPa 0,0 l/m 0 min 0 min 314 W/m 6,4 km/h (2 Bft) 97,87 %
08.04.2019 15:00 20,3 C 22,2 C 20,6 C 61 % 1007,3 hPa 0,0 l/m 0 min 0 min 318 W/m 9,7 km/h (2 Bft) 97,87 %
08.04.2019 15:02 20,3 C 22,2 C 20,6 C 62 % 1007,1 hPa 0,0 l/m 0 min 0 min 320 W/m 6,4 km/h (2 Bft) 97,87 %
08.04.2019 15:04 20,3 C 22,2 C 20,6 C 61 % 1007,2 hPa 0,0 l/m 2 min 0 min 341 W/m 6,4 km/h (2 Bft) 95,74 %
08.04.2019 15:06 20,2 C 21,1 C 20,0 C 60 % 1007,1 hPa 0,0 l/m 2 min 0 min 332 W/m 6,4 km/h (2 Bft) 98,28 %
08.04.2019 15:08 20,2 C 21,1 C 20,0 C 60 % 1007,1 hPa 0,0 l/m 2 min 0 min 367 W/m 9,7 km/h (2 Bft) 97,14 %
08.04.2019 15:10 20,2 C 21,1 C 20,0 C 60 % 1007,2 hPa 0,0 l/m 2 min 0 min 344 W/m 9,7 km/h (2 Bft) 97,87 %
08.04.2019 15:12 20,1 C 20,6 C 20,0 C 60 % 1007,2 hPa 0,0 l/m 2 min 0 min 361 W/m 6,4 km/h (2 Bft) 97,87 %
08.04.2019 15:14 20,1 C 20,6 C 20,0 C 59 % 1007,2 hPa 0,0 l/m 2 min 0 min 369 W/m 9,7 km/h (2 Bft) 97,87 %
08.04.2019 15:16 20,1 C 21,1 C 20,0 C 59 % 1007,2 hPa 0,0 l/m 2 min 0 min 346 W/m 9,7 km/h (2 Bft) 97,87 %
08.04.2019 15:18 20,0 C 20,6 C 20,0 C 59 % 1007,1 hPa 0,0 l/m 2 min 0 min 368 W/m 9,7 km/h (2 Bft) 97,87 %
08.04.2019 15:20 19,9 C 21,1 C 20,6 C 60 % 1007,2 hPa 0,0 l/m 2 min 0 min 431 W/m 9,7 km/h (2 Bft) 95,65 %
08.04.2019 15:22 19,9 C 20,6 C 20,0 C 59 % 1007,1 hPa 0,0 l/m 2 min 0 min 391 W/m 9,7 km/h (2 Bft) 97,87 %
08.04.2019 15:24 19,9 C 20,6 C 20,0 C 59 % 1007,2 hPa 0,0 l/m 2 min 0 min 375 W/m 6,4 km/h (2 Bft) 95,74 %
08.04.2019 15:26 19,8 C 20,6 C 20,0 C 59 % 1007,2 hPa 0,0 l/m 0 min 0 min 315 W/m 9,7 km/h (2 Bft) 100,00 %
08.04.2019 15:28 19,8 C 20,6 C 20,0 C 61 % 1007,2 hPa 0,0 l/m 0 min 0 min 298 W/m 6,4 km/h (2 Bft) 100,00 %
08.04.2019 15:30 19,8 C 20,6 C 20,0 C 59 % 1007,2 hPa 0,0 l/m 0 min 0 min 292 W/m 6,4 km/h (2 Bft) 100,00 %
08.04.2019 15:32 19,7 C 20,0 C 19,4 C 60 % 1007,2 hPa 0,0 l/m 0 min 0 min 291 W/m 16,1 km/h (3 Bft) 100,00 %
08.04.2019 15:34 19,7 C 19,4 C 19,4 C 60 % 1007,1 hPa 0,0 l/m 0 min 0 min 287 W/m 9,7 km/h (2 Bft) 100,00 %
08.04.2019 15:36 19,6 C 19,4 C 19,4 C 60 % 1007,1 hPa 0,0 l/m 0 min 0 min 287 W/m 12,9 km/h (3 Bft) 100,00 %
08.04.2019 15:38 19,6 C 19,4 C 19,4 C 60 % 1007,2 hPa 0,0 l/m 0 min 0 min 293 W/m 12,9 km/h (3 Bft) 100,00 %
08.04.2019 15:40 19,6 C 18,9 C 19,4 C 60 % 1007,1 hPa 0,0 l/m 0 min 0 min 302 W/m 12,9 km/h (3 Bft) 100,00 %
08.04.2019 15:42 19,5 C 19,4 C 19,4 C 60 % 1007,2 hPa 0,0 l/m 2 min 0 min 311 W/m 9,7 km/h (2 Bft) 97,87 %
08.04.2019 15:44 19,4 C 19,4 C 19,4 C 60 % 1007,2 hPa 0,0 l/m 2 min 0 min 319 W/m 12,9 km/h (3 Bft) 97,83 %
08.04.2019 15:46 19,4 C 19,4 C 19,4 C 60 % 1007,1 hPa 0,0 l/m 2 min 0 min 308 W/m 9,7 km/h (2 Bft) 97,87 %
08.04.2019 15:48 19,4 C 20,0 C 20,0 C 62 % 1007,2 hPa 0,0 l/m 2 min 0 min 307 W/m 6,4 km/h (2 Bft) 97,87 %
08.04.2019 15:50 19,4 C 20,0 C 20,0 C 62 % 1007,2 hPa 0,0 l/m 2 min 0 min 322 W/m 12,9 km/h (3 Bft) 97,87 %
08.04.2019 15:52 19,4 C 21,1 C 20,0 C 63 % 1007,2 hPa 0,0 l/m 2 min 0 min 353 W/m 6,4 km/h (2 Bft) 97,87 %
08.04.2019 15:54 19,4 C 22,2 C 20,6 C 64 % 1007,3 hPa 0,0 l/m 2 min 0 min 557 W/m 16,1 km/h (3 Bft) 97,83 %
08.04.2019 15:56 19,5 C 22,8 C 20,6 C 63 % 1007,3 hPa 0,0 l/m 2 min 0 min 603 W/m 16,1 km/h (3 Bft) 97,87 %
08.04.2019 15:58 19,6 C 23,3 C 20,6 C 61 % 1007,3 hPa 0,0 l/m 2 min 0 min 576 W/m 22,5 km/h (4 Bft) 97,87 %
08.04.2019 16:00 19,7 C 22,8 C 21,1 C 61 % 1007,3 hPa 0,0 l/m 2 min 0 min 539 W/m 19,3 km/h (3 Bft) 97,87 %
08.04.2019 16:02 19,7 C 23,9 C 21,1 C 59 % 1007,3 hPa 0,0 l/m 2 min 0 min 536 W/m 9,7 km/h (2 Bft) 91,67 %
08.04.2019 16:04 19,8 C 23,3 C 21,1 C 57 % 1007,3 hPa 0,0 l/m 2 min 0 min 658 W/m 19,3 km/h (3 Bft) 93,62 %
08.04.2019 16:06 19,9 C 23,9 C 21,1 C 57 % 1007,3 hPa 0,0 l/m 2 min 0 min 659 W/m 12,9 km/h (3 Bft) 93,10 %
08.04.2019 16:08 19,9 C 23,9 C 21,7 C 57 % 1007,3 hPa 0,0 l/m 2 min 0 min 607 W/m 12,9 km/h (3 Bft) 97,14 %
08.04.2019 16:10 20,0 C 23,3 C 21,1 C 56 % 1007,3 hPa 0,0 l/m 2 min 0 min 411 W/m 12,9 km/h (3 Bft) 95,74 %
08.04.2019 16:12 20,0 C 21,7 C 20,6 C 55 % 1007,3 hPa 0,0 l/m 2 min 0 min 291 W/m 19,3 km/h (3 Bft) 95,74 %
08.04.2019 16:14 19,9 C 21,1 C 20,0 C 54 % 1007,3 hPa 0,0 l/m 2 min 0 min 306 W/m 9,7 km/h (2 Bft) 95,74 %
08.04.2019 16:16 19,9 C 22,2 C 20,6 C 54 % 1007,2 hPa 0,0 l/m 2 min 0 min 404 W/m 12,9 km/h (3 Bft) 97,87 %
08.04.2019 16:18 19,9 C 21,7 C 20,6 C 54 % 1007,3 hPa 0,0 l/m 2 min 0 min 396 W/m 29,0 km/h (5 Bft) 95,65 %
08.04.2019 16:20 19,9 C 21,1 C 20,0 C 54 % 1007,3 hPa 0,0 l/m 2 min 0 min 297 W/m 25,7 km/h (4 Bft) 95,74 %
08.04.2019 16:22 19,8 C 20,6 C 19,4 C 54 % 1007,3 hPa 0,0 l/m 0 min 0 min 265 W/m 19,3 km/h (3 Bft) 93,62 %
08.04.2019 16:24 19,7 C 20,0 C 19,4 C 54 % 1007,2 hPa 0,0 l/m 0 min 0 min 264 W/m 16,1 km/h (3 Bft) 95,74 %
08.04.2019 16:26 19,7 C 20,0 C 19,4 C 54 % 1007,2 hPa 0,0 l/m 2 min 0 min 311 W/m 22,5 km/h (4 Bft) 95,74 %
08.04.2019 16:28 19,6 C 20,0 C 19,4 C 54 % 1007,2 hPa 0,0 l/m 2 min 0 min 298 W/m 22,5 km/h (4 Bft) 93,62 %
08.04.2019 16:30 19,6 C 20,6 C 19,4 C 54 % 1007,2 hPa 0,0 l/m 2 min 0 min 290 W/m 12,9 km/h (3 Bft) 93,48 %
08.04.2019 16:32 19,6 C 20,0 C 19,4 C 54 % 1007,1 hPa 0,0 l/m 2 min 0 min 274 W/m 25,7 km/h (4 Bft) 93,75 %
08.04.2019 16:34 19,4 C 20,0 C 18,9 C 52 % 1007,1 hPa 0,0 l/m 0 min 0 min 228 W/m 19,3 km/h (3 Bft) 95,74 %
08.04.2019 16:36 19,4 C 19,4 C 18,9 C 53 % 1007,1 hPa 0,0 l/m 0 min 0 min 221 W/m 19,3 km/h (3 Bft) 95,74 %
08.04.2019 16:38 19,3 C 19,4 C 18,9 C 53 % 1007,2 hPa 0,0 l/m 0 min 0 min 227 W/m 12,9 km/h (3 Bft) 97,87 %
08.04.2019 16:40 19,3 C 19,4 C 18,9 C 53 % 1007,1 hPa 0,0 l/m 0 min 0 min 234 W/m 12,9 km/h (3 Bft) 97,87 %
08.04.2019 16:42 19,2 C 20,0 C 18,9 C 53 % 1007,1 hPa 0,0 l/m 2 min 0 min 284 W/m 22,5 km/h (4 Bft) 97,83 %
08.04.2019 16:44 19,2 C 20,0 C 18,9 C 53 % 1007,1 hPa 0,0 l/m 0 min 0 min 246 W/m 22,5 km/h (4 Bft) 97,87 %
08.04.2019 16:46 19,2 C 20,0 C 18,9 C 54 % 1007,1 hPa 0,0 l/m 2 min 0 min 262 W/m 12,9 km/h (3 Bft) 95,74 %
08.04.2019 16:48 19,2 C 20,0 C 18,9 C 53 % 1007,0 hPa 0,0 l/m 2 min 0 min 258 W/m 16,1 km/h (3 Bft) 97,87 %
08.04.2019 16:50 19,1 C 20,0 C 18,9 C 53 % 1007,0 hPa 0,0 l/m 0 min 0 min 247 W/m 9,7 km/h (2 Bft) 97,87 %
08.04.2019 16:52 19,1 C 20,0 C 18,9 C 52 % 1007,0 hPa 0,0 l/m 0 min 0 min 222 W/m 16,1 km/h (3 Bft) 95,65 %
08.04.2019 16:54 19,1 C 21,1 C 19,4 C 52 % 1007,0 hPa 0,0 l/m 2 min 0 min 272 W/m 16,1 km/h (3 Bft) 95,74 %
08.04.2019 16:56 19,2 C 21,1 C 20,0 C 53 % 1007,0 hPa 0,0 l/m 2 min 0 min 374 W/m 12,9 km/h (3 Bft) 97,87 %
08.04.2019 16:58 19,2 C 21,7 C 20,6 C 53 % 1007,0 hPa 0,0 l/m 2 min 0 min 355 W/m 12,9 km/h (3 Bft) 97,87 %
08.04.2019 17:00 19,2 C 21,7 C 20,6 C 53 % 1007,0 hPa 0,0 l/m 2 min 0 min 387 W/m 16,1 km/h (3 Bft) 97,87 %
08.04.2019 17:02 19,2 C 21,1 C 20,6 C 53 % 1006,9 hPa 0,0 l/m 2 min 0 min 353 W/m 16,1 km/h (3 Bft) 97,87 %
08.04.2019 17:04 19,3 C 20,6 C 20,0 C 52 % 1006,9 hPa 0,0 l/m 0 min 0 min 226 W/m 16,1 km/h (3 Bft) 97,83 %
08.04.2019 17:06 19,3 C 20,6 C 19,4 C 53 % 1006,9 hPa 0,0 l/m 0 min 0 min 179 W/m 12,9 km/h (3 Bft) 91,49 %
08.04.2019 17:08 19,3 C 20,0 C 18,9 C 53 % 1006,9 hPa 0,0 l/m 0 min 0 min 171 W/m 9,7 km/h (2 Bft) 95,74 %
08.04.2019 17:10 19,3 C 20,0 C 18,9 C 54 % 1006,9 hPa 0,0 l/m 0 min 0 min 163 W/m 9,7 km/h (2 Bft) 97,87 %
08.04.2019 17:12 19,3 C 19,4 C 18,3 C 54 % 1006,8 hPa 0,0 l/m 0 min 0 min 156 W/m 9,7 km/h (2 Bft) 97,87 %
08.04.2019 17:14 19,2 C 19,4 C 18,3 C 53 % 1006,9 hPa 0,0 l/m 0 min 0 min 162 W/m 6,4 km/h (2 Bft) 97,87 %
08.04.2019 17:16 19,2 C 19,4 C 18,3 C 52 % 1006,8 hPa 0,0 l/m 0 min 0 min 171 W/m 9,7 km/h (2 Bft) 95,65 %
08.04.2019 17:18 19,2 C 19,4 C 18,3 C 54 % 1006,8 hPa 0,0 l/m 0 min 0 min 181 W/m 6,4 km/h (2 Bft) 97,87 %
08.04.2019 17:20 19,2 C 19,4 C 18,3 C 53 % 1006,8 hPa 0,0 l/m 0 min 0 min 156 W/m 12,9 km/h (3 Bft) 97,87 %
08.04.2019 17:22 19,2 C 19,4 C 18,3 C 54 % 1006,8 hPa 0,0 l/m 0 min 0 min 154 W/m 6,4 km/h (2 Bft) 93,62 %
08.04.2019 17:24 19,2 C 19,4 C 18,3 C 54 % 1006,9 hPa 0,0 l/m 0 min 0 min 157 W/m 12,9 km/h (3 Bft) 97,87 %
08.04.2019 17:26 19,2 C 19,4 C 18,3 C 53 % 1006,8 hPa 0,0 l/m 0 min 0 min 166 W/m 12,9 km/h (3 Bft) 97,87 %
08.04.2019 17:28 19,2 C 20,0 C 18,3 C 54 % 1006,8 hPa 0,0 l/m 0 min 0 min 188 W/m 9,7 km/h (2 Bft) 95,65 %
08.04.2019 17:30 19,2 C 20,6 C 18,3 C 54 % 1006,8 hPa 0,0 l/m 2 min 0 min 328 W/m 9,7 km/h (2 Bft) 97,87 %
08.04.2019 17:32 19,2 C 20,6 C 18,9 C 52 % 1006,8 hPa 0,0 l/m 2 min 0 min 277 W/m 6,4 km/h (2 Bft) 97,87 %
08.04.2019 17:34 19,2 C 20,6 C 18,9 C 53 % 1006,9 hPa 0,0 l/m 2 min 0 min 283 W/m 12,9 km/h (3 Bft) 97,87 %
08.04.2019 17:36 19,2 C 20,6 C 18,9 C 53 % 1006,9 hPa 0,0 l/m 2 min 0 min 226 W/m 12,9 km/h (3 Bft) 94,83 %
08.04.2019 17:38 19,2 C 20,6 C 18,9 C 52 % 1006,8 hPa 0,0 l/m 2 min 0 min 243 W/m 16,1 km/h (3 Bft) 97,22 %
08.04.2019 17:40 19,2 C 20,6 C 18,9 C 53 % 1006,8 hPa 0,0 l/m 2 min 0 min 324 W/m 9,7 km/h (2 Bft) 97,83 %
08.04.2019 17:42 19,3 C 21,1 C 18,9 C 53 % 1006,8 hPa 0,0 l/m 2 min 0 min 290 W/m 9,7 km/h (2 Bft) 95,74 %
08.04.2019 17:44 19,3 C 20,6 C 18,9 C 54 % 1006,8 hPa 0,0 l/m 2 min 0 min 216 W/m 6,4 km/h (2 Bft) 97,87 %
08.04.2019 17:46 19,3 C 20,6 C 18,9 C 54 % 1006,8 hPa 0,0 l/m 0 min 0 min 180 W/m 6,4 km/h (2 Bft) 95,74 %
08.04.2019 17:48 19,4 C 20,0 C 18,9 C 53 % 1006,8 hPa 0,0 l/m 0 min 0 min 171 W/m 6,4 km/h (2 Bft) 97,87 %
08.04.2019 17:50 19,4 C 20,0 C 18,9 C 54 % 1006,8 hPa 0,0 l/m 0 min 0 min 171 W/m 6,4 km/h (2 Bft) 97,87 %
08.04.2019 17:52 19,4 C 20,0 C 18,3 C 53 % 1006,8 hPa 0,0 l/m 0 min 0 min 170 W/m 3,2 km/h (1 Bft) 95,65 %
08.04.2019 17:54 19,4 C 20,0 C 18,9 C 53 % 1006,8 hPa 0,0 l/m 0 min 0 min 169 W/m 3,2 km/h (1 Bft) 97,87 %
08.04.2019 17:56 19,5 C 19,4 C 18,3 C 54 % 1006,9 hPa 0,0 l/m 0 min 0 min 169 W/m 6,4 km/h (2 Bft) 93,62 %
08.04.2019 17:58 19,5 C 19,4 C 18,3 C 54 % 1006,8 hPa 0,0 l/m 0 min 0 min 169 W/m 6,4 km/h (2 Bft) 97,87 %
08.04.2019 18:00 19,5 C 19,4 C 18,3 C 55 % 1006,8 hPa 0,0 l/m 0 min 0 min 169 W/m 3,2 km/h (1 Bft) 97,87 %
08.04.2019 18:02 19,5 C 19,4 C 18,3 C 55 % 1006,9 hPa 0,0 l/m 0 min 0 min 164 W/m 6,4 km/h (2 Bft) 97,87 %
08.04.2019 18:04 19,5 C 19,4 C 18,3 C 54 % 1006,9 hPa 0,0 l/m 0 min 0 min 159 W/m 3,2 km/h (1 Bft) 100,00 %
08.04.2019 18:08 19,4 C 19,4 C 18,3 C 52 % 1006,9 hPa 0,0 l/m 0 min 0 min 159 W/m 3,2 km/h (1 Bft) 100,00 %
08.04.2019 18:10 19,5 C 19,4 C 18,3 C 55 % 1006,9 hPa 0,0 l/m 2 min 0 min 169 W/m 3,2 km/h (1 Bft) 97,87 %
08.04.2019 18:12 19,5 C 20,0 C 18,3 C 56 % 1006,9 hPa 0,0 l/m 2 min 0 min 182 W/m 3,2 km/h (1 Bft) 100,00 %
08.04.2019 18:14 19,4 C 19,4 C 18,3 C 54 % 1007,0 hPa 0,0 l/m 2 min 0 min 169 W/m 6,4 km/h (2 Bft) 100,00 %
08.04.2019 18:16 19,4 C 19,4 C 18,3 C 54 % 1006,9 hPa 0,0 l/m 2 min 0 min 155 W/m 3,2 km/h (1 Bft) 100,00 %
08.04.2019 18:18 19,4 C 19,4 C 18,3 C 54 % 1006,9 hPa 0,0 l/m 0 min 0 min 149 W/m 6,4 km/h (2 Bft) 97,87 %
08.04.2019 18:20 19,4 C 19,4 C 18,3 C 55 % 1007,0 hPa 0,0 l/m 0 min 0 min 144 W/m 6,4 km/h (2 Bft) 100,00 %
08.04.2019 18:22 19,4 C 18,9 C 17,8 C 55 % 1007,0 hPa 0,0 l/m 0 min 0 min 131 W/m 6,4 km/h (2 Bft) 100,00 %
08.04.2019 18:24 19,4 C 18,9 C 17,8 C 55 % 1007,0 hPa 0,0 l/m 0 min 0 min 119 W/m 6,4 km/h (2 Bft) 100,00 %
08.04.2019 18:26 19,4 C 18,9 C 17,8 C 56 % 1007,0 hPa 0,0 l/m 0 min 0 min 117 W/m 3,2 km/h (1 Bft) 100,00 %
08.04.2019 18:28 19,3 C 18,9 C 17,8 C 56 % 1007,0 hPa 0,0 l/m 0 min 0 min 120 W/m 3,2 km/h (1 Bft) 97,87 %
08.04.2019 18:30 19,3 C 18,9 C 17,8 C 55 % 1007,0 hPa 0,0 l/m 0 min 0 min 123 W/m 3,2 km/h (1 Bft) 100,00 %
08.04.2019 18:32 19,3 C 18,9 C 17,8 C 55 % 1007,0 hPa 0,0 l/m 0 min 0 min 127 W/m 3,2 km/h (1 Bft) 100,00 %
08.04.2019 18:34 19,3 C 18,9 C 17,8 C 55 % 1007,0 hPa 0,0 l/m 2 min 0 min 132 W/m 6,4 km/h (2 Bft) 100,00 %
08.04.2019 18:36 19,3 C 18,9 C 17,8 C 56 % 1006,9 hPa 0,0 l/m 2 min 0 min 133 W/m 3,2 km/h (1 Bft) 100,00 %
08.04.2019 18:38 19,3 C 18,9 C 17,8 C 56 % 1006,9 hPa 0,0 l/m 2 min 0 min 131 W/m 3,2 km/h (1 Bft) 100,00 %
08.04.2019 18:40 19,2 C 18,9 C 17,8 C 57 % 1006,9 hPa 0,0 l/m 2 min 0 min 126 W/m 0,0 km/h (0 Bft) 97,87 %
08.04.2019 18:42 19,2 C 18,9 C 17,8 C 56 % 1007,0 hPa 0,0 l/m 0 min 0 min 118 W/m 3,2 km/h (1 Bft) 100,00 %
08.04.2019 18:44 19,2 C 18,9 C 17,8 C 57 % 1007,0 hPa 0,0 l/m 0 min 0 min 110 W/m 3,2 km/h (1 Bft) 100,00 %
08.04.2019 18:46 19,2 C 18,9 C 17,8 C 56 % 1006,9 hPa 0,0 l/m 0 min 0 min 102 W/m 0,0 km/h (0 Bft) 100,00 %
08.04.2019 18:48 19,2 C 18,9 C 17,8 C 56 % 1007,0 hPa 0,0 l/m 0 min 0 min 93 W/m 6,4 km/h (2 Bft) 97,87 %
08.04.2019 18:50 19,2 C 18,3 C 17,2 C 56 % 1007,0 hPa 0,0 l/m 0 min 0 min 84 W/m 6,4 km/h (2 Bft) 95,65 %
08.04.2019 18:52 19,1 C 17,8 C 17,2 C 56 % 1007,1 hPa 0,0 l/m 0 min 0 min 74 W/m 9,7 km/h (2 Bft) 97,87 %
08.04.2019 18:54 19,1 C 17,2 C 16,7 C 56 % 1007,0 hPa 0,0 l/m 0 min 0 min 67 W/m 12,9 km/h (3 Bft) 95,74 %
08.04.2019 18:56 18,9 C 17,2 C 16,7 C 56 % 1007,0 hPa 0,0 l/m 0 min 0 min 64 W/m 6,4 km/h (2 Bft) 97,87 %
08.04.2019 18:58 18,9 C 17,2 C 16,7 C 56 % 1007,1 hPa 0,0 l/m 0 min 0 min 63 W/m 6,4 km/h (2 Bft) 97,87 %
08.04.2019 19:00 18,8 C 17,2 C 16,7 C 57 % 1007,1 hPa 0,0 l/m 0 min 0 min 60 W/m 9,7 km/h (2 Bft) 97,87 %
08.04.2019 19:02 18,7 C 16,7 C 16,7 C 58 % 1007,2 hPa 0,0 l/m 0 min 0 min 55 W/m 6,4 km/h (2 Bft) 97,87 %
08.04.2019 19:04 18,6 C 16,7 C 16,1 C 58 % 1007,2 hPa 0,0 l/m 0 min 0 min 52 W/m 9,7 km/h (2 Bft) 97,87 %
08.04.2019 19:06 18,5 C 16,7 C 16,1 C 58 % 1007,1 hPa 0,0 l/m 0 min 0 min 45 W/m 6,4 km/h (2 Bft) 97,87 %
08.04.2019 19:08 18,4 C 16,1 C 16,1 C 58 % 1007,1 hPa 0,0 l/m 0 min 0 min 38 W/m 6,4 km/h (2 Bft) 97,87 %
08.04.2019 19:10 18,3 C 16,1 C 15,6 C 59 % 1007,2 hPa 0,0 l/m 0 min 0 min 35 W/m 12,9 km/h (3 Bft) 97,87 %
08.04.2019 19:12 18,1 C 16,1 C 15,6 C 60 % 1007,2 hPa 0,0 l/m 0 min 0 min 33 W/m 9,7 km/h (2 Bft) 95,74 %
08.04.2019 19:14 18,0 C 16,1 C 15,6 C 60 % 1007,2 hPa 0,0 l/m 0 min 0 min 31 W/m 12,9 km/h (3 Bft) 97,83 %
08.04.2019 19:16 17,9 C 15,6 C 15,6 C 60 % 1007,3 hPa 0,0 l/m 0 min 0 min 30 W/m 9,7 km/h (2 Bft) 95,74 %
08.04.2019 19:18 17,7 C 15,6 C 15,6 C 62 % 1007,3 hPa 0,0 l/m 0 min 0 min 28 W/m 6,4 km/h (2 Bft) 95,74 %
08.04.2019 19:20 17,7 C 15,6 C 15,6 C 62 % 1007,4 hPa 0,0 l/m 0 min 0 min 28 W/m 6,4 km/h (2 Bft) 93,62 %
08.04.2019 19:22 17,5 C 15,6 C 15,6 C 62 % 1007,3 hPa 0,0 l/m 0 min 0 min 28 W/m 9,7 km/h (2 Bft) 97,87 %
08.04.2019 19:24 17,4 C 15,6 C 15,0 C 63 % 1007,4 hPa 0,0 l/m 0 min 0 min 26 W/m 6,4 km/h (2 Bft) 91,30 %
08.04.2019 19:26 17,3 C 15,6 C 15,0 C 64 % 1007,3 hPa 0,0 l/m 0 min 0 min 26 W/m 9,7 km/h (2 Bft) 95,74 %
08.04.2019 19:28 17,2 C 15,6 C 15,0 C 64 % 1007,3 hPa 0,0 l/m 0 min 0 min 26 W/m 16,1 km/h (3 Bft) 95,74 %
08.04.2019 19:30 17,1 C 15,6 C 15,0 C 64 % 1007,5 hPa 0,0 l/m 0 min 0 min 26 W/m 6,4 km/h (2 Bft) 93,62 %
08.04.2019 19:32 16,9 C 15,0 C 15,0 C 65 % 1007,3 hPa 0,0 l/m 0 min 0 min 26 W/m 6,4 km/h (2 Bft) 97,92 %
08.04.2019 19:34 16,8 C 15,0 C 15,0 C 65 % 1007,4 hPa 0,0 l/m 0 min 0 min 26 W/m 6,4 km/h (2 Bft) 97,87 %
08.04.2019 19:36 16,7 C 15,0 C 15,0 C 65 % 1007,4 hPa 0,0 l/m 0 min 0 min 25 W/m 16,1 km/h (3 Bft) 95,65 %
08.04.2019 19:38 16,6 C 15,0 C 15,0 C 65 % 1007,5 hPa 0,0 l/m 0 min 0 min 23 W/m 12,9 km/h (3 Bft) 95,74 %
08.04.2019 19:40 16,5 C 15,0 C 15,0 C 65 % 1007,3 hPa 0,0 l/m 0 min 0 min 21 W/m 9,7 km/h (2 Bft) 95,74 %
08.04.2019 19:42 16,4 C 15,0 C 14,4 C 65 % 1007,4 hPa 0,0 l/m 0 min 0 min 19 W/m 6,4 km/h (2 Bft) 95,74 %
08.04.2019 19:44 16,3 C 15,0 C 14,4 C 66 % 1007,4 hPa 0,0 l/m 0 min 0 min 17 W/m 9,7 km/h (2 Bft) 97,87 %
08.04.2019 19:46 16,3 C 14,4 C 14,4 C 66 % 1007,4 hPa 0,0 l/m 0 min 0 min 16 W/m 16,1 km/h (3 Bft) 95,74 %
08.04.2019 19:48 16,2 C 14,4 C 14,4 C 65 % 1007,4 hPa 0,0 l/m 0 min 0 min 14 W/m 9,7 km/h (2 Bft) 97,83 %
08.04.2019 19:50 16,1 C 14,4 C 14,4 C 66 % 1007,4 hPa 0,0 l/m 0 min 0 min 14 W/m 6,4 km/h (2 Bft) 91,49 %
08.04.2019 19:52 16,1 C 14,4 C 14,4 C 66 % 1007,5 hPa 0,0 l/m 0 min 0 min 13 W/m 6,4 km/h (2 Bft) 97,87 %
08.04.2019 19:54 16,0 C 14,4 C 14,4 C 67 % 1007,4 hPa 0,0 l/m 0 min 0 min 12 W/m 6,4 km/h (2 Bft) 97,87 %
08.04.2019 19:56 15,9 C 14,4 C 13,9 C 67 % 1007,6 hPa 0,0 l/m 0 min 0 min 11 W/m 12,9 km/h (3 Bft) 97,87 %
08.04.2019 19:58 15,9 C 14,4 C 13,9 C 67 % 1007,6 hPa 0,0 l/m 0 min 0 min 9 W/m 12,9 km/h (3 Bft) 95,74 %
08.04.2019 20:00 15,8 C 14,4 C 13,9 C 67 % 1007,6 hPa 0,0 l/m 0 min 0 min 8 W/m 12,9 km/h (3 Bft) 93,48 %
08.04.2019 20:02 15,7 C 14,4 C 13,9 C 67 % 1007,6 hPa 0,0 l/m 0 min 0 min 7 W/m 12,9 km/h (3 Bft) 95,83 %
08.04.2019 20:04 15,7 C 13,9 C 13,9 C 67 % 1007,6 hPa 0,0 l/m 0 min 0 min 6 W/m 6,4 km/h (2 Bft) 95,74 %
08.04.2019 20:06 15,6 C 13,9 C 13,9 C 68 % 1007,6 hPa 0,0 l/m 0 min 0 min 5 W/m 9,7 km/h (2 Bft) 93,62 %
08.04.2019 20:08 15,6 C 13,9 C 13,9 C 68 % 1007,6 hPa 0,0 l/m 0 min 0 min 5 W/m 9,7 km/h (2 Bft) 95,74 %
08.04.2019 20:10 15,5 C 13,9 C 13,9 C 69 % 1007,6 hPa 0,0 l/m 0 min 0 min 4 W/m 6,4 km/h (2 Bft) 95,65 %
08.04.2019 20:12 15,4 C 13,9 C 13,9 C 69 % 1007,6 hPa 0,0 l/m 0 min 0 min 0 W/m 9,7 km/h (2 Bft) 93,62 %
08.04.2019 20:14 15,4 C 13,9 C 13,9 C 69 % 1007,7 hPa 0,0 l/m 0 min 0 min 0 W/m 9,7 km/h (2 Bft) 93,62 %
08.04.2019 20:16 15,3 C 13,9 C 13,3 C 69 % 1007,7 hPa 0,0 l/m 0 min 0 min 0 W/m 6,4 km/h (2 Bft) 93,62 %
08.04.2019 20:18 15,3 C 13,9 C 13,3 C 70 % 1007,7 hPa 0,0 l/m 0 min 0 min 0 W/m 9,7 km/h (2 Bft) 95,74 %
08.04.2019 20:20 15,2 C 13,9 C 13,3 C 70 % 1007,7 hPa 0,0 l/m 0 min 0 min 0 W/m 12,9 km/h (3 Bft) 95,74 %
08.04.2019 20:22 15,2 C 13,9 C 13,3 C 70 % 1007,8 hPa 0,0 l/m 0 min 0 min 0 W/m 9,7 km/h (2 Bft) 97,83 %
08.04.2019 20:24 15,1 C 13,3 C 13,3 C 70 % 1007,8 hPa 0,0 l/m 0 min 0 min 0 W/m 9,7 km/h (2 Bft) 97,87 %
08.04.2019 20:26 15,1 C 13,3 C 13,3 C 71 % 1007,8 hPa 0,0 l/m 0 min 0 min 0 W/m 3,2 km/h (1 Bft) 97,87 %
08.04.2019 20:28 15,0 C 13,3 C 13,3 C 71 % 1007,8 hPa 0,0 l/m 0 min 0 min 0 W/m 3,2 km/h (1 Bft) 97,87 %
08.04.2019 20:30 14,9 C 13,3 C 13,3 C 71 % 1007,9 hPa 0,0 l/m 0 min 0 min 0 W/m 3,2 km/h (1 Bft) 95,74 %
08.04.2019 20:32 14,9 C 13,3 C 13,3 C 71 % 1007,8 hPa 0,0 l/m 0 min 0 min 0 W/m 3,2 km/h (1 Bft) 96,00 %
08.04.2019 20:34 14,9 C 13,3 C 13,3 C 71 % 1007,9 hPa 0,0 l/m 0 min 0 min 0 W/m 6,4 km/h (2 Bft) 97,87 %
08.04.2019 20:36 14,8 C 13,3 C 13,3 C 71 % 1007,9 hPa 0,0 l/m 0 min 0 min 0 W/m 9,7 km/h (2 Bft) 100,00 %
08.04.2019 20:38 14,8 C 13,3 C 13,3 C 72 % 1007,9 hPa 0,0 l/m 0 min 0 min 0 W/m 12,9 km/h (3 Bft) 94,29 %
08.04.2019 20:40 14,7 C 13,3 C 13,3 C 72 % 1007,9 hPa 0,0 l/m 0 min 0 min 0 W/m 9,7 km/h (2 Bft) 98,15 %
08.04.2019 20:42 14,7 C 13,3 C 12,8 C 72 % 1007,9 hPa 0,0 l/m 0 min 0 min 0 W/m 6,4 km/h (2 Bft) 97,87 %
08.04.2019 20:44 14,7 C 13,3 C 12,8 C 73 % 1007,9 hPa 0,0 l/m 0 min 0 min 0 W/m 6,4 km/h (2 Bft) 97,87 %
08.04.2019 20:46 14,6 C 13,3 C 12,8 C 73 % 1008,0 hPa 0,0 l/m 0 min 0 min 0 W/m 6,4 km/h (2 Bft) 97,87 %
08.04.2019 20:48 14,6 C 13,3 C 12,8 C 73 % 1008,0 hPa 0,0 l/m 0 min 0 min 0 W/m 9,7 km/h (2 Bft) 97,83 %
08.04.2019 20:50 14,5 C 13,3 C 12,8 C 73 % 1008,0 hPa 0,0 l/m 0 min 0 min 0 W/m 6,4 km/h (2 Bft) 97,87 %
08.04.2019 20:52 14,5 C 13,3 C 12,8 C 74 % 1008,0 hPa 0,0 l/m 0 min 0 min 0 W/m 6,4 km/h (2 Bft) 95,74 %
08.04.2019 20:54 14,4 C 12,8 C 12,8 C 74 % 1008,0 hPa 0,0 l/m 0 min 0 min 0 W/m 9,7 km/h (2 Bft) 97,87 %
08.04.2019 20:56 14,4 C 12,8 C 12,8 C 74 % 1008,0 hPa 0,0 l/m 0 min 0 min 0 W/m 9,7 km/h (2 Bft) 100,00 %
08.04.2019 20:58 14,4 C 12,8 C 12,8 C 74 % 1008,0 hPa 0,0 l/m 0 min 0 min 0 W/m 6,4 km/h (2 Bft) 100,00 %
08.04.2019 21:00 14,3 C 12,8 C 12,8 C 75 % 1008,1 hPa 0,0 l/m 0 min 0 min 0 W/m 9,7 km/h (2 Bft) 97,87 %
08.04.2019 21:02 14,3 C 12,8 C 12,8 C 75 % 1008,1 hPa 0,0 l/m 0 min 0 min 0 W/m 6,4 km/h (2 Bft) 97,92 %
08.04.2019 21:04 14,2 C 12,8 C 12,8 C 75 % 1008,1 hPa 0,0 l/m 0 min 0 min 0 W/m 6,4 km/h (2 Bft) 100,00 %
08.04.2019 21:06 14,2 C 12,8 C 12,8 C 75 % 1008,1 hPa 0,0 l/m 0 min 0 min 0 W/m 3,2 km/h (1 Bft) 100,00 %
08.04.2019 21:08 14,2 C 12,8 C 12,8 C 75 % 1008,1 hPa 0,0 l/m 0 min 0 min 0 W/m 6,4 km/h (2 Bft) 97,87 %
08.04.2019 21:10 14,2 C 12,8 C 12,2 C 75 % 1008,1 hPa 0,0 l/m 0 min 0 min 0 W/m 3,2 km/h (1 Bft) 100,00 %
08.04.2019 21:12 14,2 C 12,8 C 12,2 C 75 % 1008,2 hPa 0,0 l/m 0 min 0 min 0 W/m 3,2 km/h (1 Bft) 100,00 %
08.04.2019 21:14 14,2 C 12,8 C 12,2 C 75 % 1008,3 hPa 0,0 l/m 0 min 0 min 0 W/m 3,2 km/h (1 Bft) 100,00 %
08.04.2019 21:16 14,2 C 12,8 C 12,2 C 75 % 1008,3 hPa 0,0 l/m 0 min 0 min 0 W/m 3,2 km/h (1 Bft) 100,00 %
08.04.2019 21:18 14,2 C 12,8 C 12,2 C 76 % 1008,3 hPa 0,0 l/m 0 min 0 min 0 W/m 6,4 km/h (2 Bft) 100,00 %
08.04.2019 21:20 14,2 C 12,8 C 12,2 C 76 % 1008,3 hPa 0,0 l/m 0 min 0 min 0 W/m 3,2 km/h (1 Bft) 100,00 %
08.04.2019 21:22 14,1 C 12,8 C 12,2 C 76 % 1008,4 hPa 0,0 l/m 0 min 0 min 0 W/m 0,0 km/h (0 Bft) 100,00 %
08.04.2019 21:24 14,1 C 12,2 C 12,2 C 76 % 1008,4 hPa 0,0 l/m 0 min 0 min 0 W/m 3,2 km/h (1 Bft) 100,00 %
08.04.2019 21:26 14,1 C 12,2 C 12,2 C 76 % 1008,4 hPa 0,0 l/m 0 min 0 min 0 W/m 3,2 km/h (1 Bft) 95,74 %
08.04.2019 21:28 14,0 C 12,2 C 11,7 C 76 % 1008,4 hPa 0,0 l/m 0 min 0 min 0 W/m 0,0 km/h (0 Bft) 100,00 %
08.04.2019 21:30 14,0 C 12,2 C 11,7 C 76 % 1008,4 hPa 0,0 l/m 0 min 0 min 0 W/m 3,2 km/h (1 Bft) 100,00 %
08.04.2019 21:32 13,9 C 12,2 C 11,7 C 76 % 1008,5 hPa 0,0 l/m 0 min 0 min 0 W/m 3,2 km/h (1 Bft) 100,00 %
08.04.2019 21:34 13,9 C 12,8 C 11,7 C 76 % 1008,5 hPa 0,0 l/m 0 min 0 min 0 W/m 3,2 km/h (1 Bft) 100,00 %
08.04.2019 21:36 13,9 C 12,2 C 11,7 C 76 % 1008,5 hPa 0,0 l/m 0 min 0 min 0 W/m 3,2 km/h (1 Bft) 100,00 %
08.04.2019 21:38 13,8 C 12,2 C 11,7 C 76 % 1008,4 hPa 0,0 l/m 0 min 0 min 0 W/m 3,2 km/h (1 Bft) 100,00 %
08.04.2019 21:40 13,8 C 12,2 C 11,7 C 76 % 1008,4 hPa 0,0 l/m 0 min 0 min 0 W/m 3,2 km/h (1 Bft) 100,00 %
08.04.2019 21:42 13,8 C 12,2 C 11,7 C 76 % 1008,4 hPa 0,0 l/m 0 min 0 min 0 W/m 6,4 km/h (2 Bft) 100,00 %
08.04.2019 21:44 13,7 C 12,2 C 11,7 C 76 % 1008,4 hPa 0,0 l/m 0 min 0 min 0 W/m 6,4 km/h (2 Bft) 97,83 %
08.04.2019 21:46 13,7 C 12,2 C 11,7 C 77 % 1008,3 hPa 0,0 l/m 0 min 0 min 0 W/m 6,4 km/h (2 Bft) 100,00 %
08.04.2019 21:48 13,7 C 12,2 C 11,7 C 77 % 1008,3 hPa 0,0 l/m 0 min 0 min 0 W/m 6,4 km/h (2 Bft) 100,00 %
08.04.2019 21:50 13,6 C 12,2 C 11,7 C 77 % 1008,3 hPa 0,0 l/m 0 min 0 min 0 W/m 6,4 km/h (2 Bft) 100,00 %
08.04.2019 21:52 13,6 C 12,2 C 11,7 C 77 % 1008,3 hPa 0,0 l/m 0 min 0 min 0 W/m 6,4 km/h (2 Bft) 97,87 %
08.04.2019 21:54 13,5 C 12,2 C 11,7 C 77 % 1008,3 hPa 0,0 l/m 0 min 0 min 0 W/m 6,4 km/h (2 Bft) 97,87 %
08.04.2019 21:56 13,4 C 12,2 C 11,7 C 78 % 1008,3 hPa 0,0 l/m 0 min 0 min 0 W/m 3,2 km/h (1 Bft) 97,83 %
08.04.2019 21:58 13,4 C 12,2 C 11,7 C 78 % 1008,4 hPa 0,0 l/m 0 min 0 min 0 W/m 3,2 km/h (1 Bft) 100,00 %
08.04.2019 22:00 13,4 C 12,2 C 11,7 C 78 % 1008,4 hPa 0,0 l/m 0 min 0 min 0 W/m 3,2 km/h (1 Bft) 97,87 %
08.04.2019 22:02 13,4 C 12,2 C 11,7 C 78 % 1008,4 hPa 0,0 l/m 0 min 0 min 0 W/m 3,2 km/h (1 Bft) 95,74 %
08.04.2019 22:04 13,3 C 11,7 C 11,7 C 78 % 1008,4 hPa 0,0 l/m 0 min 0 min 0 W/m 3,2 km/h (1 Bft) 97,87 %
08.04.2019 22:06 13,3 C 11,7 C 11,7 C 78 % 1008,4 hPa 0,0 l/m 0 min 0 min 0 W/m 3,2 km/h (1 Bft) 100,00 %
08.04.2019 22:08 13,3 C 11,7 C 11,7 C 78 % 1008,5 hPa 0,0 l/m 0 min 0 min 0 W/m 3,2 km/h (1 Bft) 97,83 %
08.04.2019 22:10 13,3 C 12,2 C 11,7 C 78 % 1008,4 hPa 0,0 l/m 0 min 0 min 0 W/m 3,2 km/h (1 Bft) 93,62 %
08.04.2019 22:12 13,2 C 12,2 C 11,7 C 78 % 1008,4 hPa 0,0 l/m 0 min 0 min 0 W/m 9,7 km/h (2 Bft) 97,87 %
08.04.2019 22:14 13,2 C 12,2 C 11,7 C 78 % 1008,3 hPa 0,0 l/m 0 min 0 min 0 W/m 9,7 km/h (2 Bft) 93,62 %
08.04.2019 22:16 13,2 C 12,2 C 11,7 C 78 % 1008,3 hPa 0,0 l/m 0 min 0 min 0 W/m 3,2 km/h (1 Bft) 97,87 %
08.04.2019 22:18 13,2 C 12,2 C 11,7 C 78 % 1008,3 hPa 0,0 l/m 0 min 0 min 0 W/m 3,2 km/h (1 Bft) 97,87 %
08.04.2019 22:20 13,2 C 12,2 C 11,7 C 79 % 1008,3 hPa 0,0 l/m 0 min 0 min 0 W/m 9,7 km/h (2 Bft) 97,87 %
08.04.2019 22:22 13,1 C 11,7 C 11,7 C 79 % 1008,3 hPa 0,0 l/m 0 min 0 min 0 W/m 6,4 km/h (2 Bft) 97,83 %
08.04.2019 22:24 13,1 C 11,7 C 11,7 C 79 % 1008,3 hPa 0,0 l/m 0 min 0 min 0 W/m 6,4 km/h (2 Bft) 97,87 %
08.04.2019 22:26 13,1 C 11,7 C 11,7 C 79 % 1008,3 hPa 0,0 l/m 0 min 0 min 0 W/m 6,4 km/h (2 Bft) 97,87 %
08.04.2019 22:28 13,1 C 11,7 C 11,7 C 79 % 1008,3 hPa 0,0 l/m 0 min 0 min 0 W/m 6,4 km/h (2 Bft) 97,87 %
08.04.2019 22:30 13,0 C 11,7 C 11,7 C 79 % 1008,3 hPa 0,0 l/m 0 min 0 min 0 W/m 9,7 km/h (2 Bft) 97,87 %
08.04.2019 22:32 13,0 C 11,7 C 11,7 C 79 % 1008,4 hPa 0,0 l/m 0 min 0 min 0 W/m 3,2 km/h (1 Bft) 95,65 %
08.04.2019 22:34 12,9 C 11,7 C 11,7 C 79 % 1008,3 hPa 0,0 l/m 0 min 0 min 0 W/m 3,2 km/h (1 Bft) 97,87 %
08.04.2019 22:36 12,9 C 11,7 C 11,7 C 79 % 1008,3 hPa 0,0 l/m 0 min 0 min 0 W/m 6,4 km/h (2 Bft) 97,87 %
08.04.2019 22:38 12,9 C 11,7 C 11,1 C 79 % 1008,3 hPa 0,0 l/m 0 min 0 min 0 W/m 3,2 km/h (1 Bft) 95,74 %
08.04.2019 22:40 12,9 C 11,7 C 11,1 C 79 % 1008,3 hPa 0,0 l/m 0 min 0 min 0 W/m 3,2 km/h (1 Bft) 97,87 %
08.04.2019 22:42 12,9 C 11,7 C 11,1 C 79 % 1008,4 hPa 0,0 l/m 0 min 0 min 0 W/m 3,2 km/h (1 Bft) 95,74 %
08.04.2019 22:44 12,9 C 11,7 C 11,1 C 79 % 1008,4 hPa 0,0 l/m 0 min 0 min 0 W/m 3,2 km/h (1 Bft) 93,48 %
08.04.2019 22:46 12,8 C 11,7 C 11,1 C 79 % 1008,3 hPa 0,0 l/m 0 min 0 min 0 W/m 3,2 km/h (1 Bft) 95,74 %
08.04.2019 22:48 12,8 C 11,7 C 11,1 C 79 % 1008,3 hPa 0,0 l/m 0 min 0 min 0 W/m 3,2 km/h (1 Bft) 97,87 %
08.04.2019 22:50 12,8 C 11,7 C 11,1 C 80 % 1008,3 hPa 0,0 l/m 0 min 0 min 0 W/m 0,0 km/h (0 Bft) 95,74 %
08.04.2019 22:52 12,8 C 11,7 C 11,1 C 80 % 1008,3 hPa 0,0 l/m 0 min 0 min 0 W/m 0,0 km/h (0 Bft) 95,74 %
08.04.2019 22:54 12,8 C 11,7 C 11,1 C 80 % 1008,3 hPa 0,0 l/m 0 min 0 min 0 W/m 3,2 km/h (1 Bft) 97,87 %
08.04.2019 22:56 12,7 C 11,7 C 11,1 C 80 % 1008,3 hPa 0,0 l/m 0 min 0 min 0 W/m 6,4 km/h (2 Bft) 97,83 %
08.04.2019 22:58 12,7 C 11,7 C 11,7 C 80 % 1008,3 hPa 0,0 l/m 0 min 0 min 0 W/m 9,7 km/h (2 Bft) 95,74 %
08.04.2019 23:00 12,7 C 11,7 C 11,7 C 80 % 1008,3 hPa 0,0 l/m 0 min 0 min 0 W/m 6,4 km/h (2 Bft) 97,87 %
08.04.2019 23:02 12,7 C 11,7 C 11,7 C 80 % 1008,4 hPa 0,0 l/m 0 min 0 min 0 W/m 3,2 km/h (1 Bft) 95,83 %
08.04.2019 23:04 12,7 C 11,7 C 11,1 C 80 % 1008,4 hPa 0,0 l/m 0 min 0 min 0 W/m 6,4 km/h (2 Bft) 95,65 %
08.04.2019 23:06 12,7 C 11,7 C 11,1 C 80 % 1008,4 hPa 0,0 l/m 0 min 0 min 0 W/m 6,4 km/h (2 Bft) 93,62 %
08.04.2019 23:08 12,7 C 11,7 C 11,7 C 80 % 1008,4 hPa 0,0 l/m 0 min 0 min 0 W/m 6,4 km/h (2 Bft) 95,74 %
08.04.2019 23:10 12,6 C 11,7 C 11,7 C 81 % 1008,4 hPa 0,0 l/m 0 min 0 min 0 W/m 6,4 km/h (2 Bft) 93,62 %
08.04.2019 23:12 12,6 C 11,7 C 11,7 C 81 % 1008,4 hPa 0,0 l/m 0 min 0 min 0 W/m 3,2 km/h (1 Bft) 95,74 %
08.04.2019 23:14 12,6 C 11,7 C 11,1 C 81 % 1008,4 hPa 0,0 l/m 0 min 0 min 0 W/m 6,4 km/h (2 Bft) 95,74 %
08.04.2019 23:16 12,6 C 11,7 C 11,1 C 81 % 1008,4 hPa 0,0 l/m 0 min 0 min 0 W/m 3,2 km/h (1 Bft) 95,65 %
08.04.2019 23:18 12,6 C 11,7 C 11,1 C 81 % 1008,4 hPa 0,0 l/m 0 min 0 min 0 W/m 6,4 km/h (2 Bft) 95,74 %
08.04.2019 23:20 12,6 C 11,7 C 11,1 C 81 % 1008,4 hPa 0,0 l/m 0 min 0 min 0 W/m 3,2 km/h (1 Bft) 95,74 %
08.04.2019 23:22 12,6 C 11,7 C 11,1 C 81 % 1008,4 hPa 0,0 l/m 0 min 0 min 0 W/m 0,0 km/h (0 Bft) 93,62 %
08.04.2019 23:24 12,6 C 11,7 C 11,1 C 81 % 1008,4 hPa 0,0 l/m 0 min 0 min 0 W/m 6,4 km/h (2 Bft) 93,62 %
08.04.2019 23:26 12,6 C 11,7 C 11,1 C 81 % 1008,5 hPa 0,0 l/m 0 min 0 min 0 W/m 3,2 km/h (1 Bft) 95,74 %
08.04.2019 23:28 12,6 C 11,7 C 11,1 C 81 % 1008,5 hPa 0,0 l/m 0 min 0 min 0 W/m 0,0 km/h (0 Bft) 95,65 %
08.04.2019 23:30 12,6 C 11,7 C 11,1 C 81 % 1008,5 hPa 0,0 l/m 0 min 0 min 0 W/m 0,0 km/h (0 Bft) 93,62 %
08.04.2019 23:32 12,5 C 11,7 C 11,1 C 81 % 1008,4 hPa 0,0 l/m 0 min 0 min 0 W/m 3,2 km/h (1 Bft) 91,49 %
08.04.2019 23:34 12,5 C 11,7 C 11,1 C 81 % 1008,4 hPa 0,0 l/m 0 min 0 min 0 W/m 3,2 km/h (1 Bft) 95,74 %
08.04.2019 23:36 12,5 C 11,7 C 11,1 C 81 % 1008,4 hPa 0,0 l/m 0 min 0 min 0 W/m 3,2 km/h (1 Bft) 93,62 %
08.04.2019 23:38 12,5 C 11,7 C 11,1 C 81 % 1008,3 hPa 0,0 l/m 0 min 0 min 0 W/m 3,2 km/h (1 Bft) 95,74 %
08.04.2019 23:40 12,5 C 11,7 C 11,1 C 81 % 1008,4 hPa 0,0 l/m 0 min 0 min 0 W/m 6,4 km/h (2 Bft) 91,30 %
08.04.2019 23:42 12,5 C 11,7 C 11,1 C 81 % 1008,4 hPa 0,0 l/m 0 min 0 min 0 W/m 6,4 km/h (2 Bft) 95,74 %
08.04.2019 23:44 12,4 C 11,7 C 11,1 C 81 % 1008,3 hPa 0,0 l/m 0 min 0 min 0 W/m 6,4 km/h (2 Bft) 95,74 %
08.04.2019 23:46 12,4 C 11,7 C 11,1 C 81 % 1008,3 hPa 0,0 l/m 0 min 0 min 0 W/m 9,7 km/h (2 Bft) 95,74 %
08.04.2019 23:48 12,4 C 11,7 C 11,7 C 81 % 1008,3 hPa 0,0 l/m 0 min 0 min 0 W/m 3,2 km/h (1 Bft) 95,74 %
08.04.2019 23:50 12,4 C 11,7 C 11,7 C 81 % 1008,4 hPa 0,0 l/m 0 min 0 min 0 W/m 6,4 km/h (2 Bft) 95,74 %
08.04.2019 23:52 12,4 C 11,7 C 11,7 C 81 % 1008,4 hPa 0,0 l/m 0 min 0 min 0 W/m 3,2 km/h (1 Bft) 95,65 %
08.04.2019 23:54 12,4 C 11,7 C 11,7 C 81 % 1008,5 hPa 0,0 l/m 0 min 0 min 0 W/m 3,2 km/h (1 Bft) 97,87 %
08.04.2019 23:56 12,4 C 11,7 C 11,7 C 81 % 1008,4 hPa 0,0 l/m 0 min 0 min 0 W/m 3,2 km/h (1 Bft) 97,87 %
08.04.2019 23:58 12,4 C 11,7 C 11,1 C 82 % 1008,4 hPa 0,0 l/m 0 min 0 min 0 W/m 6,4 km/h (2 Bft) 97,87 %
_ Min-Zeit 06:32 06:32 04:56 16:34 00:00 - - - - 00:00 13:24
Minimum _ 7,3 C 5,6 C 5,0 C 52 % 1004,8 hPa - - - - 0,0 km/h (0 Bft) 34,04 %
_ Max-Zeit 14:48 13:36 14:04 09:56 21:32 00:00 12:07 00:00 14:38 16:18 00:32
Maximum _ 20,5 C 28,9 C 27,2 C 98 % 1008,5 hPa 0,0 l/m 3 min 0 min 765 W/m 29,0 km/h
NW (5 Bft)
100,00 %
Durchschnitt _ 13,4 C 14,0 C 12,6 C 78 % 1007,0 hPa #0,0 l/m #6:14 h #0 min. 309 W/m 5,1 km/h (1 Bft) 96,34 %
© 2019 W. Hausmann